Time,TemperatureF,DewpointF,PressureIn,WindDirection,WindDirectionDegrees,WindSpeedMPH,WindSpeedGustMPH,Humidity,HourlyPrecipIn,Conditions,Clouds,dailyrainin,SoftwareType,DateUTC
2013-07-06 00:00:00,72.0,62.1,29.79,SSW,195,1.0,4.0,71,0.00,,CLR,0.00,VWS V12.07,2013-07-06 05:00:00,
2013-07-06 00:01:00,72.1,62.2,29.79,SSW,198,2.0,4.0,71,0.00,,SCT120,0.00,VWS V12.07,2013-07-06 05:01:00,
2013-07-06 00:03:00,72.1,62.2,29.79,SSW,198,2.0,4.0,71,0.00,,SCT120,0.00,VWS V12.07,2013-07-06 05:03:00,
2013-07-06 00:04:00,72.1,62.6,29.79,SSW,198,2.0,4.0,72,0.00,,SCT120,0.00,VWS V12.07,2013-07-06 05:04:00,
2013-07-06 00:05:00,72.1,62.6,29.79,SSW,198,2.0,4.0,72,0.00,,SCT120,0.00,VWS V12.07,2013-07-06 05:05:00,
2013-07-06 00:06:00,72.1,62.2,29.79,SSW,198,2.0,4.0,71,0.00,,SCT120,0.00,VWS V12.07,2013-07-06 05:06:00,
2013-07-06 00:07:00,72.1,62.2,29.79,SSW,198,2.0,4.0,71,0.00,,SCT120,0.00,VWS V12.07,2013-07-06 05:07:00,
2013-07-06 00:08:00,72.1,61.8,29.79,SSW,198,1.0,4.0,70,0.00,,SCT120,0.00,VWS V12.07,2013-07-06 05:08:00,
2013-07-06 00:09:00,72.1,61.4,29.79,SSW,198,3.0,4.0,69,0.00,,SCT120,0.00,VWS V12.07,2013-07-06 05:09:00,
2013-07-06 00:10:00,72.1,61.8,29.79,SSW,198,5.0,5.0,70,0.00,,SCT120,0.00,VWS V12.07,2013-07-06 05:10:00,
2013-07-06 00:11:00,72.1,61.4,29.79,SSW,198,2.0,5.0,69,0.00,,SCT120,0.00,VWS V12.07,2013-07-06 05:11:00,
2013-07-06 00:12:00,72.3,61.6,29.79,SSW,198,2.0,5.0,69,0.00,,SCT120,0.00,VWS V12.07,2013-07-06 05:12:00,
2013-07-06 00:13:00,72.3,62.4,29.79,SSW,198,2.0,5.0,71,0.00,,SCT120,0.00,VWS V12.07,2013-07-06 05:13:00,
2013-07-06 00:15:00,72.3,62.0,29.79,SSW,198,1.0,5.0,70,0.00,,SCT120,0.00,VWS V12.07,2013-07-06 05:15:00,
2013-07-06 00:16:00,72.3,61.6,29.79,SSW,197,1.0,5.0,69,0.00,,SCT120,0.00,VWS V12.07,2013-07-06 05:16:00,
2013-07-06 00:17:00,72.3,62.0,29.79,SSW,197,3.0,5.0,70,0.00,,SCT120,0.00,VWS V12.07,2013-07-06 05:17:00,
2013-07-06 00:18:00,72.3,62.4,29.79,SSW,197,3.0,5.0,71,0.00,,SCT120,0.00,VWS V12.07,2013-07-06 05:18:00,
2013-07-06 00:20:00,72.3,61.6,29.79,SSW,199,3.0,5.0,69,0.00,,SCT120,0.00,VWS V12.07,2013-07-06 05:20:00,
2013-07-06 00:21:00,72.3,61.6,29.79,SSW,199,0.0,5.0,69,0.00,,SCT120,0.00,VWS V12.07,2013-07-06 05:21:00,
2013-07-06 00:22:00,72.5,62.2,29.79,SSW,199,3.0,5.0,70,0.00,,SCT120,0.00,VWS V12.07,2013-07-06 05:22:00,
2013-07-06 00:24:00,72.5,61.3,29.79,SSW,211,1.0,6.0,68,0.00,,SCT120,0.00,VWS V12.07,2013-07-06 05:24:00,
2013-07-06 00:26:00,72.5,62.2,29.79,SSW,211,3.0,6.0,70,0.00,,SCT120,0.00,VWS V12.07,2013-07-06 05:26:00,
2013-07-06 00:27:00,72.7,62.4,29.79,SSW,211,2.0,6.0,70,0.00,,SCT120,0.00,VWS V12.07,2013-07-06 05:27:00,
2013-07-06 00:29:00,72.7,62.4,29.79,SSW,211,2.0,6.0,70,0.00,,SCT120,0.00,VWS V12.07,2013-07-06 05:29:00,
2013-07-06 00:31:00,72.8,62.9,29.79,SSW,211,3.0,6.0,71,0.00,,SCT120,0.00,VWS V12.07,2013-07-06 05:31:00,
2013-07-06 00:32:00,72.8,62.9,29.79,SSW,211,2.0,6.0,71,0.00,,SCT120,0.00,VWS V12.07,2013-07-06 05:32:00,
2013-07-06 00:33:00,72.8,62.5,29.79,SSW,211,3.0,6.0,70,0.00,,SCT120,0.00,VWS V12.07,2013-07-06 05:33:00,
2013-07-06 00:34:00,72.8,62.5,29.79,SSW,211,2.0,6.0,70,0.00,,SCT120,0.00,VWS V12.07,2013-07-06 05:34:00,
2013-07-06 00:36:00,72.8,62.5,29.79,SW,219,3.0,6.0,70,0.00,,SCT120,0.00,VWS V12.07,2013-07-06 05:36:00,
2013-07-06 00:37:00,72.8,62.0,29.79,SW,219,2.0,6.0,69,0.00,,SCT120,0.00,VWS V12.07,2013-07-06 05:37:00,
2013-07-06 00:38:00,72.8,62.5,29.79,SSW,200,5.0,6.0,70,0.00,,SCT120,0.00,VWS V12.07,2013-07-06 05:38:00,
2013-07-06 00:40:00,72.8,62.0,29.79,South,189,3.0,6.0,69,0.00,,SCT120,0.00,VWS V12.07,2013-07-06 05:40:00,
2013-07-06 00:41:00,72.8,61.6,29.79,SSW,202,3.0,6.0,68,0.00,,SCT120,0.00,VWS V12.07,2013-07-06 05:41:00,
2013-07-06 00:42:00,72.8,61.6,29.79,SSW,202,1.0,6.0,68,0.00,,SCT120,0.00,VWS V12.07,2013-07-06 05:42:00,
2013-07-06 00:43:00,72.8,62.5,29.79,SSW,208,1.0,6.0,70,0.00,,SCT120,0.00,VWS V12.07,2013-07-06 05:43:00,
2013-07-06 00:45:00,72.8,61.6,29.79,SSW,213,4.0,6.0,68,0.00,,SCT120,0.00,VWS V12.07,2013-07-06 05:45:00,
2013-07-06 00:46:00,72.8,62.0,29.79,SSW,212,2.0,6.0,69,0.00,,SCT120,0.00,VWS V12.07,2013-07-06 05:46:00,
2013-07-06 00:47:00,72.8,62.0,29.79,SSW,212,3.0,6.0,69,0.00,,SCT120,0.00,VWS V12.07,2013-07-06 05:47:00,
2013-07-06 00:48:00,73.0,62.2,29.79,SW,216,4.0,6.0,69,0.00,,SCT120,0.00,VWS V12.07,2013-07-06 05:48:00,
2013-07-06 00:50:00,72.8,62.5,29.79,SSW,211,4.0,5.0,70,0.00,,CLR,0.00,VWS V12.07,2013-07-06 05:50:00,
2013-07-06 00:51:00,73.0,62.2,29.79,SW,218,3.0,6.0,69,0.00,,SCT120,0.00,VWS V12.07,2013-07-06 05:51:00,
2013-07-06 00:52:00,73.0,61.4,29.79,SW,221,3.0,6.0,67,0.00,,SCT120,0.00,VWS V12.07,2013-07-06 05:52:00,
2013-07-06 00:54:00,73.0,62.2,29.79,SW,221,4.0,6.0,69,0.00,,SCT120,0.00,VWS V12.07,2013-07-06 05:54:00,
2013-07-06 00:56:00,73.0,62.2,29.79,SW,217,3.0,6.0,69,0.00,,SCT120,0.00,VWS V12.07,2013-07-06 05:56:00,
2013-07-06 00:57:00,73.0,62.2,29.79,SW,217,4.0,6.0,69,0.00,,SCT120,0.00,VWS V12.07,2013-07-06 05:57:00,
2013-07-06 00:58:00,73.0,61.8,29.79,SSW,203,3.0,6.0,68,0.00,,SCT120,0.00,VWS V12.07,2013-07-06 05:58:00,
2013-07-06 00:59:00,73.0,62.2,29.79,SW,221,1.0,6.0,69,0.00,,SCT120,0.00,VWS V12.07,2013-07-06 05:59:00,
2013-07-06 01:01:00,73.0,61.8,29.79,SSE,159,2.0,6.0,68,0.00,,SCT120,0.00,VWS V12.07,2013-07-06 06:01:00,
2013-07-06 01:02:00,73.0,62.2,29.79,SSW,205,3.0,6.0,69,0.00,,SCT120,0.00,VWS V12.07,2013-07-06 06:02:00,
2013-07-06 01:03:00,73.0,62.2,29.79,SSW,205,3.0,6.0,69,0.00,,SCT120,0.00,VWS V12.07,2013-07-06 06:03:00,
2013-07-06 01:04:00,73.0,62.2,29.79,SSW,210,4.0,6.0,69,0.00,,SCT120,0.00,VWS V12.07,2013-07-06 06:04:00,
2013-07-06 01:07:00,72.8,61.2,29.79,SW,223,3.0,6.0,67,0.00,,SCT120,0.00,VWS V12.07,2013-07-06 06:07:00,
2013-07-06 01:09:00,72.8,62.0,29.79,SSW,213,3.0,6.0,69,0.00,,SCT120,0.00,VWS V12.07,2013-07-06 06:09:00,
2013-07-06 01:10:00,72.8,61.6,29.79,West,268,1.0,6.0,68,0.00,,SCT120,0.00,VWS V12.07,2013-07-06 06:10:00,
2013-07-06 01:12:00,72.8,61.6,29.79,SW,221,3.0,6.0,68,0.00,,SCT120,0.00,VWS V12.07,2013-07-06 06:12:00,
2013-07-06 01:13:00,72.8,62.0,29.79,SW,217,6.0,6.0,69,0.00,,SCT120,0.00,VWS V12.07,2013-07-06 06:13:00,
2013-07-06 01:14:00,72.8,62.0,29.79,SW,221,5.0,6.0,69,0.00,,SCT120,0.00,VWS V12.07,2013-07-06 06:14:00,
2013-07-06 01:16:00,72.8,61.6,29.79,SW,233,3.0,6.0,68,0.00,,SCT120,0.00,VWS V12.07,2013-07-06 06:16:00,
2013-07-06 01:17:00,72.8,61.6,29.79,SW,214,4.0,6.0,68,0.00,,SCT120,0.00,VWS V12.07,2013-07-06 06:17:00,
2013-07-06 01:18:00,72.7,62.0,29.79,SW,214,4.0,6.0,69,0.00,,SCT120,0.00,VWS V12.07,2013-07-06 06:18:00,
2013-07-06 01:19:00,72.7,62.0,29.79,SSW,213,3.0,6.0,69,0.00,,SCT120,0.00,VWS V12.07,2013-07-06 06:19:00,
2013-07-06 01:20:00,72.7,62.0,29.79,SSW,213,2.0,6.0,69,0.00,,SCT120,0.00,VWS V12.07,2013-07-06 06:20:00,
2013-07-06 01:21:00,72.7,62.0,29.79,SSW,213,5.0,6.0,69,0.00,,SCT120,0.00,VWS V12.07,2013-07-06 06:21:00,
2013-07-06 01:22:00,72.7,62.0,29.79,SW,224,4.0,6.0,69,0.00,,SCT120,0.00,VWS V12.07,2013-07-06 06:22:00,
2013-07-06 01:24:00,72.7,61.5,29.79,SW,217,3.0,6.0,68,0.00,,SCT120,0.00,VWS V12.07,2013-07-06 06:24:00,
2013-07-06 01:25:00,72.7,61.5,29.79,SW,218,4.0,6.0,68,0.00,,SCT120,0.00,VWS V12.07,2013-07-06 06:25:00,
2013-07-06 01:26:00,72.7,62.0,29.79,SSW,212,3.0,6.0,69,0.00,,SCT120,0.00,VWS V12.07,2013-07-06 06:26:00,
2013-07-06 01:28:00,72.7,62.0,29.79,SW,219,3.0,6.0,69,0.00,,SCT120,0.00,VWS V12.07,2013-07-06 06:28:00,
2013-07-06 01:29:00,72.7,62.0,29.79,SW,217,4.0,6.0,69,0.00,,SCT120,0.00,VWS V12.07,2013-07-06 06:29:00,
2013-07-06 01:30:00,72.7,62.0,29.79,South,189,2.0,6.0,69,0.00,,SCT120,0.00,VWS V12.07,2013-07-06 06:30:00,
2013-07-06 01:32:00,72.7,61.5,29.79,SW,225,5.0,6.0,68,0.00,,SCT120,0.00,VWS V12.07,2013-07-06 06:32:00,
2013-07-06 01:33:00,72.7,62.0,29.79,SSW,200,4.0,6.0,69,0.00,,SCT120,0.00,VWS V12.07,2013-07-06 06:33:00,
2013-07-06 01:34:00,72.7,62.4,29.79,SW,226,6.0,9.0,70,0.00,,SCT120,0.00,VWS V12.07,2013-07-06 06:34:00,
2013-07-06 01:35:00,72.5,62.2,29.79,SW,224,2.0,9.0,70,0.00,,SCT120,0.00,VWS V12.07,2013-07-06 06:35:00,
2013-07-06 01:37:00,72.5,61.8,29.79,SSW,212,3.0,9.0,69,0.00,,SCT120,0.00,VWS V12.07,2013-07-06 06:37:00,
2013-07-06 01:39:00,72.5,62.2,29.79,SW,226,5.0,9.0,70,0.00,,SCT120,0.00,VWS V12.07,2013-07-06 06:39:00,
2013-07-06 01:40:00,72.5,62.2,29.79,SW,226,4.0,9.0,70,0.00,,SCT120,0.00,VWS V12.07,2013-07-06 06:40:00,
2013-07-06 01:42:00,72.5,62.2,29.79,SW,226,4.0,9.0,70,0.00,,SCT120,0.00,VWS V12.07,2013-07-06 06:42:00,
2013-07-06 01:44:00,72.3,62.4,29.79,SW,214,3.0,9.0,71,0.00,,SCT120,0.00,VWS V12.07,2013-07-06 06:44:00,
2013-07-06 01:45:00,72.3,61.2,29.79,SW,219,5.0,9.0,68,0.00,,SCT120,0.00,VWS V12.07,2013-07-06 06:45:00,
2013-07-06 01:47:00,72.3,62.0,29.79,SSW,210,3.0,9.0,70,0.00,,SCT120,0.00,VWS V12.07,2013-07-06 06:47:00,
2013-07-06 01:49:00,72.3,62.0,29.79,SW,218,5.0,9.0,70,0.00,,SCT120,0.00,VWS V12.07,2013-07-06 06:49:00,
2013-07-06 01:50:00,72.3,62.0,29.79,SSW,197,3.0,9.0,70,0.00,,SCT120,0.00,VWS V12.07,2013-07-06 06:50:00,
2013-07-06 01:51:00,72.3,62.0,29.79,SSW,201,3.0,9.0,70,0.00,,SCT120,0.00,VWS V12.07,2013-07-06 06:51:00,
2013-07-06 01:53:00,72.3,62.0,29.79,SW,214,3.0,9.0,70,0.00,,SCT120,0.00,VWS V12.07,2013-07-06 06:53:00,
2013-07-06 01:55:00,72.3,62.4,29.79,SW,214,3.0,9.0,71,0.00,,SCT120,0.00,VWS V12.07,2013-07-06 06:55:00,
2013-07-06 01:56:00,72.1,61.8,29.79,SW,223,3.0,9.0,70,0.00,,SCT120,0.00,VWS V12.07,2013-07-06 06:56:00,
2013-07-06 01:58:00,72.1,61.8,29.80,SSW,210,2.0,9.0,70,0.00,,SCT120,0.00,VWS V12.07,2013-07-06 06:58:00,
2013-07-06 02:00:00,72.1,61.8,29.80,SSW,207,3.0,9.0,70,0.00,,SCT120,0.00,VWS V12.07,2013-07-06 07:00:00,
2013-07-06 02:01:00,72.1,62.2,29.80,SSW,212,4.0,9.0,71,0.00,,SCT120,0.00,VWS V12.07,2013-07-06 07:01:00,
2013-07-06 02:04:00,72.0,61.7,29.80,SW,222,4.0,9.0,70,0.00,,SCT120,0.00,VWS V12.07,2013-07-06 07:04:00,
2013-07-06 02:05:00,72.0,62.1,29.80,SW,222,3.0,9.0,71,0.00,,SCT120,0.00,VWS V12.07,2013-07-06 07:05:00,
2013-07-06 02:06:00,72.0,62.1,29.80,South,186,2.0,9.0,71,0.00,,SCT120,0.00,VWS V12.07,2013-07-06 07:06:00,
2013-07-06 02:07:00,72.0,62.1,29.80,SW,229,2.0,9.0,71,0.00,,SCT120,0.00,VWS V12.07,2013-07-06 07:07:00,
2013-07-06 02:08:00,72.0,62.1,29.80,SW,228,3.0,9.0,71,0.00,,SCT120,0.00,VWS V12.07,2013-07-06 07:08:00,
2013-07-06 02:09:00,72.0,62.1,29.80,SW,228,4.0,9.0,71,0.00,,SCT120,0.00,VWS V12.07,2013-07-06 07:09:00,
2013-07-06 02:10:00,72.3,62.0,29.79,SW,214,3.0,6.0,70,0.00,,CLR,0.00,VWS V12.07,2013-07-06 07:10:00,
2013-07-06 02:11:00,72.0,62.1,29.80,SW,218,3.0,9.0,71,0.00,,SCT120,0.00,VWS V12.07,2013-07-06 07:11:00,
2013-07-06 02:12:00,72.0,62.1,29.80,SW,222,3.0,9.0,71,0.00,,SCT120,0.00,VWS V12.07,2013-07-06 07:12:00,
2013-07-06 02:14:00,71.8,62.3,29.80,SW,234,3.0,9.0,72,0.00,,SCT120,0.00,VWS V12.07,2013-07-06 07:14:00,
2013-07-06 02:17:00,71.8,61.9,29.80,SW,219,4.0,9.0,71,0.00,,SCT120,0.00,VWS V12.07,2013-07-06 07:17:00,
2013-07-06 02:19:00,71.8,61.9,29.80,SW,226,2.0,9.0,71,0.00,,SCT120,0.00,VWS V12.07,2013-07-06 07:19:00,
2013-07-06 02:20:00,71.8,61.5,29.80,SW,226,2.0,9.0,70,0.00,,SCT120,0.00,VWS V12.07,2013-07-06 07:20:00,
2013-07-06 02:22:00,71.8,61.9,29.80,South,188,4.0,9.0,71,0.00,,SCT120,0.00,VWS V12.07,2013-07-06 07:22:00,
2013-07-06 02:24:00,71.6,61.7,29.80,SW,217,4.0,9.0,71,0.00,,SCT120,0.00,VWS V12.07,2013-07-06 07:24:00,
2013-07-06 02:25:00,71.6,61.7,29.80,SW,219,4.0,9.0,71,0.00,,SCT120,0.00,VWS V12.07,2013-07-06 07:25:00,
2013-07-06 02:27:00,71.6,62.1,29.80,SW,219,3.0,9.0,72,0.00,,SCT120,0.00,VWS V12.07,2013-07-06 07:27:00,
2013-07-06 02:28:00,71.6,61.7,29.80,SW,231,3.0,9.0,71,0.00,,SCT120,0.00,VWS V12.07,2013-07-06 07:28:00,
2013-07-06 02:29:00,71.6,62.5,29.80,SW,219,3.0,9.0,73,0.00,,SCT120,0.00,VWS V12.07,2013-07-06 07:29:00,
2013-07-06 02:30:00,71.6,62.5,29.80,SW,214,1.0,9.0,73,0.00,,SCT120,0.00,VWS V12.07,2013-07-06 07:30:00,
2013-07-06 02:32:00,71.6,62.1,29.80,SW,214,3.0,9.0,72,0.00,,SCT120,0.00,VWS V12.07,2013-07-06 07:32:00,
2013-07-06 02:33:00,71.6,62.1,29.80,SW,214,3.0,9.0,72,0.00,,SCT120,0.00,VWS V12.07,2013-07-06 07:33:00,
2013-07-06 02:34:00,71.5,62.4,29.80,SW,214,1.0,9.0,73,0.00,,SCT120,0.00,VWS V12.07,2013-07-06 07:34:00,
2013-07-06 02:36:00,71.5,61.6,29.80,SW,232,2.0,9.0,71,0.00,,SCT120,0.00,VWS V12.07,2013-07-06 07:36:00,
2013-07-06 02:38:00,71.5,62.0,29.80,WSW,240,3.0,9.0,72,0.00,,SCT120,0.00,VWS V12.07,2013-07-06 07:38:00,
2013-07-06 02:39:00,71.5,62.0,29.80,SW,217,5.0,9.0,72,0.00,,SCT120,0.00,VWS V12.07,2013-07-06 07:39:00,
2013-07-06 02:41:00,71.3,62.2,29.80,SW,217,3.0,9.0,73,0.00,,SCT120,0.00,VWS V12.07,2013-07-06 07:41:00,
2013-07-06 02:42:00,71.3,62.2,29.80,SW,217,2.0,9.0,73,0.00,,SCT120,0.00,VWS V12.07,2013-07-06 07:42:00,
2013-07-06 02:43:00,71.3,62.2,29.80,SW,217,3.0,9.0,73,0.00,,SCT120,0.00,VWS V12.07,2013-07-06 07:43:00,
2013-07-06 02:44:00,71.3,61.8,29.80,SW,233,6.0,9.0,72,0.00,,SCT120,0.00,VWS V12.07,2013-07-06 07:44:00,
2013-07-06 02:45:00,71.3,61.4,29.80,SW,214,2.0,9.0,71,0.00,,SCT120,0.00,VWS V12.07,2013-07-06 07:45:00,
2013-07-06 02:46:00,71.3,61.8,29.80,SSW,196,2.0,9.0,72,0.00,,SCT120,0.00,VWS V12.07,2013-07-06 07:46:00,
2013-07-06 02:47:00,71.3,62.2,29.80,SW,225,4.0,9.0,73,0.00,,SCT120,0.00,VWS V12.07,2013-07-06 07:47:00,
2013-07-06 02:48:00,71.1,62.0,29.80,SW,225,3.0,9.0,73,0.00,,SCT120,0.00,VWS V12.07,2013-07-06 07:48:00,
2013-07-06 02:49:00,71.1,61.6,29.80,SW,225,1.0,9.0,72,0.00,,SCT120,0.00,VWS V12.07,2013-07-06 07:49:00,
2013-07-06 02:50:00,71.1,62.0,29.80,SW,225,4.0,9.0,73,0.00,,SCT120,0.00,VWS V12.07,2013-07-06 07:50:00,
2013-07-06 02:51:00,71.1,62.0,29.80,SW,225,3.0,9.0,73,0.00,,SCT120,0.00,VWS V12.07,2013-07-06 07:51:00,
2013-07-06 02:53:00,71.1,62.0,29.80,SW,225,3.0,9.0,73,0.00,,SCT120,0.00,VWS V12.07,2013-07-06 07:53:00,
2013-07-06 02:54:00,71.1,62.0,29.80,SW,225,3.0,9.0,73,0.00,,SCT120,0.00,VWS V12.07,2013-07-06 07:54:00,
2013-07-06 02:55:00,71.1,62.0,29.80,SW,225,4.0,9.0,73,0.00,,SCT120,0.00,VWS V12.07,2013-07-06 07:55:00,
2013-07-06 02:56:00,71.1,62.0,29.80,SW,225,4.0,9.0,73,0.00,,SCT120,0.00,VWS V12.07,2013-07-06 07:56:00,
2013-07-06 02:58:00,70.9,61.0,29.81,SW,224,5.0,9.0,71,0.00,,SCT120,0.00,VWS V12.07,2013-07-06 07:58:00,
2013-07-06 02:59:00,70.9,61.8,29.81,SW,218,4.0,9.0,73,0.00,,SCT120,0.00,VWS V12.07,2013-07-06 07:59:00,
2013-07-06 03:00:00,71.3,62.2,29.80,SW,217,3.0,6.0,73,0.00,,CLR,0.00,VWS V12.07,2013-07-06 08:00:00,
2013-07-06 03:01:00,70.9,62.2,29.81,SSW,203,4.0,9.0,74,0.00,,SCT120,0.00,VWS V12.07,2013-07-06 08:01:00,
2013-07-06 03:03:00,70.9,61.8,29.81,SW,220,3.0,9.0,73,0.00,,SCT120,0.00,VWS V12.07,2013-07-06 08:03:00,
2013-07-06 03:04:00,70.9,61.4,29.81,SW,220,3.0,9.0,72,0.00,,SCT120,0.00,VWS V12.07,2013-07-06 08:04:00,
2013-07-06 03:06:00,70.9,62.2,29.81,SW,220,4.0,9.0,74,0.00,,SCT120,0.00,VWS V12.07,2013-07-06 08:06:00,
2013-07-06 03:07:00,70.9,62.6,29.81,SW,220,3.0,9.0,75,0.00,,SCT120,0.00,VWS V12.07,2013-07-06 08:07:00,
2013-07-06 03:08:00,70.8,62.1,29.81,SW,220,2.0,9.0,74,0.00,,SCT120,0.00,VWS V12.07,2013-07-06 08:08:00,
2013-07-06 03:09:00,70.8,61.7,29.81,SW,220,2.0,9.0,73,0.00,,SCT120,0.00,VWS V12.07,2013-07-06 08:09:00,
2013-07-06 03:10:00,71.1,62.0,29.80,SW,225,3.0,7.0,73,0.00,,CLR,0.00,VWS V12.07,2013-07-06 08:10:00,
2013-07-06 03:12:00,70.8,62.1,29.81,SW,219,2.0,9.0,74,0.00,,SCT120,0.00,VWS V12.07,2013-07-06 08:12:00,
2013-07-06 03:13:00,70.8,61.7,29.81,SW,219,2.0,9.0,73,0.00,,SCT120,0.00,VWS V12.07,2013-07-06 08:13:00,
2013-07-06 03:14:00,70.8,61.7,29.81,SW,219,3.0,9.0,73,0.00,,SCT120,0.00,VWS V12.07,2013-07-06 08:14:00,
2013-07-06 03:15:00,70.8,61.7,29.81,SW,217,3.0,9.0,73,0.00,,SCT120,0.00,VWS V12.07,2013-07-06 08:15:00,
2013-07-06 03:17:00,70.8,61.3,29.81,SW,217,2.0,9.0,72,0.00,,SCT120,0.00,VWS V12.07,2013-07-06 08:17:00,
2013-07-06 03:18:00,70.8,61.7,29.81,SW,217,2.0,9.0,73,0.00,,SCT120,0.00,VWS V12.07,2013-07-06 08:18:00,
2013-07-06 03:19:00,70.8,62.1,29.81,SW,236,2.0,9.0,74,0.00,,SCT120,0.00,VWS V12.07,2013-07-06 08:19:00,
2013-07-06 03:20:00,70.8,61.7,29.81,SW,236,1.0,9.0,73,0.00,,SCT120,0.00,VWS V12.07,2013-07-06 08:20:00,
2013-07-06 03:22:00,70.8,61.7,29.81,SW,236,3.0,9.0,73,0.00,,SCT120,0.00,VWS V12.07,2013-07-06 08:22:00,
2013-07-06 03:23:00,70.6,61.5,29.81,SW,219,4.0,9.0,73,0.00,,SCT120,0.00,VWS V12.07,2013-07-06 08:23:00,
2013-07-06 03:24:00,70.6,61.1,29.81,SW,219,1.0,9.0,72,0.00,,SCT120,0.00,VWS V12.07,2013-07-06 08:24:00,
2013-07-06 03:26:00,70.8,62.1,29.81,SW,219,1.0,9.0,74,0.00,,SCT120,0.00,VWS V12.07,2013-07-06 08:26:00,
2013-07-06 03:27:00,70.6,61.9,29.81,SW,219,0.0,9.0,74,0.00,,SCT120,0.00,VWS V12.07,2013-07-06 08:27:00,
2013-07-06 03:28:00,70.6,62.3,29.80,SW,217,0.0,9.0,75,0.00,,SCT120,0.00,VWS V12.07,2013-07-06 08:28:00,
2013-07-06 03:29:00,70.6,62.3,29.80,SW,217,3.0,9.0,75,0.00,,SCT120,0.00,VWS V12.07,2013-07-06 08:29:00,
2013-07-06 03:30:00,70.8,61.7,29.81,SW,219,3.0,5.0,73,0.00,,CLR,0.00,VWS V12.07,2013-07-06 08:30:00,
2013-07-06 03:31:00,70.6,62.3,29.80,SW,217,3.0,9.0,75,0.00,,SCT120,0.00,VWS V12.07,2013-07-06 08:31:00,
2013-07-06 03:32:00,70.6,61.5,29.80,SW,217,4.0,9.0,73,0.00,,SCT120,0.00,VWS V12.07,2013-07-06 08:32:00,
2013-07-06 03:33:00,70.6,61.5,29.80,SW,217,4.0,9.0,73,0.00,,SCT120,0.00,VWS V12.07,2013-07-06 08:33:00,
2013-07-06 03:35:00,70.4,61.3,29.80,SW,221,2.0,9.0,73,0.00,,SCT120,0.00,VWS V12.07,2013-07-06 08:35:00,
2013-07-06 03:36:00,70.4,61.7,29.80,SW,221,3.0,9.0,74,0.00,,SCT120,0.00,VWS V12.07,2013-07-06 08:36:00,
2013-07-06 03:38:00,70.4,61.7,29.80,SW,221,2.0,9.0,74,0.00,,SCT120,0.00,VWS V12.07,2013-07-06 08:38:00,
2013-07-06 03:39:00,70.4,62.1,29.80,SW,221,3.0,9.0,75,0.00,,SCT120,0.00,VWS V12.07,2013-07-06 08:39:00,
2013-07-06 03:40:00,70.4,62.1,29.80,SW,221,2.0,9.0,75,0.00,,SCT120,0.00,VWS V12.07,2013-07-06 08:40:00,
2013-07-06 03:41:00,70.4,62.5,29.80,SW,218,2.0,9.0,76,0.00,,SCT120,0.00,VWS V12.07,2013-07-06 08:41:00,
2013-07-06 03:43:00,70.3,62.0,29.81,SW,218,2.0,9.0,75,0.00,,SCT120,0.00,VWS V12.07,2013-07-06 08:43:00,
2013-07-06 03:44:00,70.3,62.0,29.81,SW,218,2.0,9.0,75,0.00,,SCT120,0.00,VWS V12.07,2013-07-06 08:44:00,
2013-07-06 03:46:00,70.3,62.4,29.81,SW,218,3.0,9.0,76,0.00,,SCT120,0.00,VWS V12.07,2013-07-06 08:46:00,
2013-07-06 03:47:00,70.3,62.0,29.81,SW,219,1.0,9.0,75,0.00,,SCT120,0.00,VWS V12.07,2013-07-06 08:47:00,
2013-07-06 03:48:00,70.3,62.0,29.81,WSW,249,2.0,9.0,75,0.00,,SCT120,0.00,VWS V12.07,2013-07-06 08:48:00,
2013-07-06 03:49:00,70.3,62.4,29.81,SSW,207,3.0,9.0,76,0.00,,SCT120,0.00,VWS V12.07,2013-07-06 08:49:00,
2013-07-06 03:51:00,70.3,62.0,29.81,SSW,207,2.0,9.0,75,0.00,,SCT120,0.00,VWS V12.07,2013-07-06 08:51:00,
2013-07-06 03:52:00,70.3,62.0,29.81,SSW,207,2.0,9.0,75,0.00,,SCT120,0.00,VWS V12.07,2013-07-06 08:52:00,
2013-07-06 03:54:00,70.1,61.8,29.81,SSW,207,3.0,9.0,75,0.00,,SCT120,0.00,VWS V12.07,2013-07-06 08:54:00,
2013-07-06 03:56:00,70.1,61.8,29.81,SSW,207,3.0,9.0,75,0.00,,SCT120,0.00,VWS V12.07,2013-07-06 08:56:00,
2013-07-06 03:57:00,70.1,61.8,29.81,SSW,207,2.0,9.0,75,0.00,,SCT120,0.00,VWS V12.07,2013-07-06 08:57:00,
2013-07-06 03:59:00,70.1,62.2,29.81,SSW,207,3.0,9.0,76,0.00,,SCT120,0.00,VWS V12.07,2013-07-06 08:59:00,
2013-07-06 04:00:00,70.1,62.2,29.81,SSW,207,2.0,9.0,76,0.00,,SCT120,0.00,VWS V12.07,2013-07-06 09:00:00,
2013-07-06 04:01:00,70.1,61.8,29.81,SSW,207,0.0,9.0,75,0.00,,SCT120,0.00,VWS V12.07,2013-07-06 09:01:00,
2013-07-06 04:02:00,70.1,61.8,29.81,SSW,207,2.0,9.0,75,0.00,,SCT120,0.00,VWS V12.07,2013-07-06 09:02:00,
2013-07-06 04:04:00,69.9,62.0,29.81,SSW,207,2.0,9.0,76,0.00,,SCT120,0.00,VWS V12.07,2013-07-06 09:04:00,
2013-07-06 04:05:00,69.9,62.0,29.81,SSW,207,0.0,9.0,76,0.00,,SCT120,0.00,VWS V12.07,2013-07-06 09:05:00,
2013-07-06 04:06:00,69.9,62.0,29.81,SSW,207,2.0,9.0,76,0.00,,SCT120,0.00,VWS V12.07,2013-07-06 09:06:00,
2013-07-06 04:07:00,69.9,62.4,29.81,SSW,207,2.0,9.0,77,0.00,,SCT120,0.00,VWS V12.07,2013-07-06 09:07:00,
2013-07-06 04:10:00,69.9,62.0,29.81,SSW,207,2.0,9.0,76,0.00,,SCT120,0.00,VWS V12.07,2013-07-06 09:10:00,
2013-07-06 04:11:00,69.8,61.9,29.81,SSW,207,1.0,9.0,76,0.00,,SCT120,0.00,VWS V12.07,2013-07-06 09:11:00,
2013-07-06 04:13:00,69.8,62.3,29.81,SSW,207,2.0,9.0,77,0.00,,SCT120,0.00,VWS V12.07,2013-07-06 09:13:00,
2013-07-06 04:15:00,69.8,61.9,29.81,SSW,207,2.0,9.0,76,0.00,,SCT120,0.00,VWS V12.07,2013-07-06 09:15:00,
2013-07-06 04:16:00,69.6,61.7,29.81,SSW,207,2.0,9.0,76,0.00,,SCT120,0.00,VWS V12.07,2013-07-06 09:16:00,
2013-07-06 04:17:00,69.6,61.7,29.81,SSW,207,2.0,9.0,76,0.00,,SCT120,0.00,VWS V12.07,2013-07-06 09:17:00,
2013-07-06 04:18:00,69.6,61.7,29.81,SSW,207,2.0,9.0,76,0.00,,SCT120,0.00,VWS V12.07,2013-07-06 09:18:00,
2013-07-06 04:20:00,69.6,61.7,29.81,SSW,207,2.0,9.0,76,0.00,,SCT120,0.00,VWS V12.07,2013-07-06 09:20:00,
2013-07-06 04:21:00,69.6,62.1,29.81,SSW,207,2.0,9.0,77,0.00,,SCT120,0.00,VWS V12.07,2013-07-06 09:21:00,
2013-07-06 04:22:00,69.6,62.1,29.81,SSW,207,2.0,9.0,77,0.00,,SCT120,0.00,VWS V12.07,2013-07-06 09:22:00,
2013-07-06 04:24:00,69.6,62.1,29.81,SSW,207,2.0,9.0,77,0.00,,SCT120,0.00,VWS V12.07,2013-07-06 09:24:00,
2013-07-06 04:25:00,69.6,62.1,29.81,SSW,207,2.0,9.0,77,0.00,,SCT120,0.00,VWS V12.07,2013-07-06 09:25:00,
2013-07-06 04:27:00,69.4,61.9,29.81,SSW,207,0.0,9.0,77,0.00,,SCT120,0.00,VWS V12.07,2013-07-06 09:27:00,
2013-07-06 04:28:00,69.4,62.2,29.81,SSW,207,0.0,9.0,78,0.00,,SCT120,0.00,VWS V12.07,2013-07-06 09:28:00,
2013-07-06 04:29:00,69.4,62.6,29.81,SSW,207,3.0,9.0,79,0.00,,SCT120,0.00,VWS V12.07,2013-07-06 09:29:00,
2013-07-06 04:30:00,69.4,62.2,29.81,SSW,207,2.0,9.0,78,0.00,,SCT120,0.00,VWS V12.07,2013-07-06 09:30:00,
2013-07-06 04:32:00,69.4,62.2,29.81,SSW,207,1.0,9.0,78,0.00,,SCT120,0.00,VWS V12.07,2013-07-06 09:32:00,
2013-07-06 04:33:00,69.4,62.2,29.81,SSW,207,4.0,9.0,78,0.00,,SCT120,0.00,VWS V12.07,2013-07-06 09:33:00,
2013-07-06 04:35:00,69.4,61.9,29.81,South,181,2.0,9.0,77,0.00,,SCT120,0.00,VWS V12.07,2013-07-06 09:35:00,
2013-07-06 04:36:00,69.4,61.9,29.81,SSW,194,1.0,9.0,77,0.00,,SCT120,0.00,VWS V12.07,2013-07-06 09:36:00,
2013-07-06 04:37:00,69.3,61.8,29.81,SSW,196,3.0,9.0,77,0.00,,SCT120,0.00,VWS V12.07,2013-07-06 09:37:00,
2013-07-06 04:38:00,69.3,61.8,29.81,SSW,196,1.0,9.0,77,0.00,,SCT120,0.00,VWS V12.07,2013-07-06 09:38:00,
2013-07-06 04:39:00,69.3,61.8,29.81,SW,219,0.0,9.0,77,0.00,,SCT120,0.00,VWS V12.07,2013-07-06 09:39:00,
2013-07-06 04:40:00,69.3,62.2,29.81,SW,219,0.0,9.0,78,0.00,,SCT120,0.00,VWS V12.07,2013-07-06 09:40:00,
2013-07-06 04:41:00,69.3,62.2,29.81,SW,219,1.0,9.0,78,0.00,,SCT120,0.00,VWS V12.07,2013-07-06 09:41:00,
2013-07-06 04:42:00,69.3,61.8,29.81,SW,219,1.0,9.0,77,0.00,,SCT120,0.00,VWS V12.07,2013-07-06 09:42:00,
2013-07-06 04:43:00,69.3,61.8,29.81,SW,219,1.0,9.0,77,0.00,,SCT120,0.00,VWS V12.07,2013-07-06 09:43:00,
2013-07-06 04:44:00,69.3,62.2,29.81,SW,219,1.0,9.0,78,0.00,,SCT120,0.00,VWS V12.07,2013-07-06 09:44:00,
2013-07-06 04:45:00,69.3,62.2,29.81,SW,219,3.0,9.0,78,0.00,,SCT120,0.00,VWS V12.07,2013-07-06 09:45:00,
2013-07-06 04:46:00,69.3,62.2,29.81,SW,219,0.0,9.0,78,0.00,,SCT120,0.00,VWS V12.07,2013-07-06 09:46:00,
2013-07-06 04:48:00,69.3,62.2,29.81,SW,219,1.0,9.0,78,0.00,,SCT120,0.00,VWS V12.07,2013-07-06 09:48:00,
2013-07-06 04:50:00,69.1,62.0,29.81,SW,219,3.0,9.0,78,0.00,,SCT120,0.00,VWS V12.07,2013-07-06 09:50:00,
2013-07-06 04:51:00,69.1,62.0,29.81,SW,219,2.0,9.0,78,0.00,,SCT120,0.00,VWS V12.07,2013-07-06 09:51:00,
2013-07-06 04:53:00,69.1,61.6,29.81,SSW,195,0.0,9.0,77,0.00,,SCT120,0.00,VWS V12.07,2013-07-06 09:53:00,
2013-07-06 04:55:00,69.1,61.6,29.81,SSW,200,0.0,9.0,77,0.00,,SCT120,0.00,VWS V12.07,2013-07-06 09:55:00,
2013-07-06 04:56:00,69.1,61.6,29.81,SSW,200,1.0,9.0,77,0.00,,SCT120,0.00,VWS V12.07,2013-07-06 09:56:00,
2013-07-06 04:57:00,69.1,61.6,29.81,SSW,200,2.0,9.0,77,0.00,,SCT120,0.00,VWS V12.07,2013-07-06 09:57:00,
2013-07-06 04:58:00,69.1,61.6,29.81,SSW,200,2.0,9.0,77,0.00,,SCT120,0.00,VWS V12.07,2013-07-06 09:58:00,
2013-07-06 04:59:00,69.1,62.0,29.81,SSW,200,1.0,9.0,78,0.00,,SCT120,0.00,VWS V12.07,2013-07-06 09:59:00,
2013-07-06 05:00:00,69.1,62.0,29.81,SSW,200,0.0,9.0,78,0.00,,SCT120,0.00,VWS V12.07,2013-07-06 10:00:00,
2013-07-06 05:01:00,69.1,62.0,29.81,SSW,200,1.0,9.0,78,0.00,,SCT120,0.00,VWS V12.07,2013-07-06 10:01:00,
2013-07-06 05:03:00,68.9,61.8,29.81,SSW,200,1.0,9.0,78,0.00,,SCT120,0.00,VWS V12.07,2013-07-06 10:03:00,
2013-07-06 05:04:00,68.9,61.8,29.81,SSW,200,3.0,9.0,78,0.00,,SCT120,0.00,VWS V12.07,2013-07-06 10:04:00,
2013-07-06 05:06:00,68.9,62.1,29.81,SSW,200,2.0,9.0,79,0.00,,SCT120,0.00,VWS V12.07,2013-07-06 10:06:00,
2013-07-06 05:08:00,68.9,62.1,29.81,SSW,200,3.0,9.0,79,0.00,,SCT120,0.00,VWS V12.07,2013-07-06 10:08:00,
2013-07-06 05:10:00,68.9,62.1,29.81,SSW,200,2.0,9.0,79,0.00,,SCT120,0.00,VWS V12.07,2013-07-06 10:10:00,
2013-07-06 05:11:00,68.9,62.1,29.81,SSW,200,2.0,9.0,79,0.00,,SCT120,0.00,VWS V12.07,2013-07-06 10:11:00,
2013-07-06 05:12:00,68.9,62.5,29.81,SSW,200,2.0,9.0,80,0.00,,SCT120,0.00,VWS V12.07,2013-07-06 10:12:00,
2013-07-06 05:13:00,68.9,62.1,29.81,SSW,200,3.0,9.0,79,0.00,,SCT120,0.00,VWS V12.07,2013-07-06 10:13:00,
2013-07-06 05:15:00,68.8,62.0,29.81,SSW,200,1.0,9.0,79,0.00,,SCT120,0.00,VWS V12.07,2013-07-06 10:15:00,
2013-07-06 05:16:00,68.8,62.0,29.81,SSW,200,1.0,9.0,79,0.00,,SCT120,0.00,VWS V12.07,2013-07-06 10:16:00,
2013-07-06 05:17:00,68.8,62.4,29.81,South,187,3.0,9.0,80,0.00,,SCT120,0.00,VWS V12.07,2013-07-06 10:17:00,
2013-07-06 05:18:00,68.8,62.0,29.81,South,187,3.0,9.0,79,0.00,,SCT120,0.00,VWS V12.07,2013-07-06 10:18:00,
2013-07-06 05:20:00,68.9,61.8,29.81,SSW,200,1.0,4.0,78,0.00,,CLR,0.00,VWS V12.07,2013-07-06 10:20:00,
2013-07-06 05:21:00,68.8,62.4,29.81,SSW,198,3.0,9.0,80,0.00,,SCT120,0.00,VWS V12.07,2013-07-06 10:21:00,
2013-07-06 05:22:00,68.8,62.4,29.81,SSW,203,1.0,9.0,80,0.00,,SCT120,0.00,VWS V12.07,2013-07-06 10:22:00,
2013-07-06 05:23:00,68.8,62.0,29.81,SSW,203,1.0,9.0,79,0.00,,SCT120,0.00,VWS V12.07,2013-07-06 10:23:00,
2013-07-06 05:26:00,68.8,62.0,29.81,SSW,205,3.0,9.0,79,0.00,,SCT120,0.00,VWS V12.07,2013-07-06 10:26:00,
2013-07-06 05:27:00,68.8,62.0,29.81,SSW,205,1.0,9.0,79,0.00,,SCT120,0.00,VWS V12.07,2013-07-06 10:27:00,
2013-07-06 05:28:00,68.8,61.7,29.81,SSW,205,2.0,9.0,78,0.00,,SCT120,0.00,VWS V12.07,2013-07-06 10:28:00,
2013-07-06 05:29:00,68.8,62.0,29.81,SSW,205,1.0,9.0,79,0.00,,SCT120,0.00,VWS V12.07,2013-07-06 10:29:00,
2013-07-06 05:30:00,68.9,62.1,29.81,SSW,200,2.0,4.0,79,0.00,,CLR,0.00,VWS V12.07,2013-07-06 10:30:00,
2013-07-06 05:31:00,68.8,62.4,29.81,SSW,205,2.0,9.0,80,0.00,,SCT120,0.00,VWS V12.07,2013-07-06 10:31:00,
2013-07-06 05:32:00,68.8,62.4,29.81,SSW,205,2.0,9.0,80,0.00,,SCT120,0.00,VWS V12.07,2013-07-06 10:32:00,
2013-07-06 05:33:00,68.8,62.4,29.81,SSW,205,1.0,9.0,80,0.00,,SCT120,0.00,VWS V12.07,2013-07-06 10:33:00,
2013-07-06 05:35:00,68.8,62.4,29.81,SSW,205,1.0,9.0,80,0.00,,SCT120,0.00,VWS V12.07,2013-07-06 10:35:00,
2013-07-06 05:36:00,68.8,62.4,29.81,SSW,205,3.0,9.0,80,0.00,,SCT120,0.00,VWS V12.07,2013-07-06 10:36:00,
2013-07-06 05:37:00,68.8,62.7,29.81,SSW,205,2.0,9.0,81,0.00,,SCT120,0.00,VWS V12.07,2013-07-06 10:37:00,
2013-07-06 05:38:00,68.6,62.2,29.81,SSW,205,2.0,9.0,80,0.00,,SCT120,0.00,VWS V12.07,2013-07-06 10:38:00,
2013-07-06 05:40:00,68.6,62.2,29.81,SSW,205,2.0,9.0,80,0.00,,SCT120,0.00,VWS V12.07,2013-07-06 10:40:00,
2013-07-06 05:41:00,68.6,62.2,29.81,SSW,205,2.0,9.0,80,0.00,,SCT120,0.00,VWS V12.07,2013-07-06 10:41:00,
2013-07-06 05:42:00,68.6,61.8,29.81,SSW,205,3.0,9.0,79,0.00,,SCT120,0.00,VWS V12.07,2013-07-06 10:42:00,
2013-07-06 05:43:00,68.6,61.8,29.82,SSW,205,2.0,9.0,79,0.00,,SCT120,0.00,VWS V12.07,2013-07-06 10:43:00,
2013-07-06 05:46:00,68.4,61.6,29.82,SW,219,2.0,9.0,79,0.00,,SCT120,0.00,VWS V12.07,2013-07-06 10:46:00,
2013-07-06 05:47:00,68.6,62.2,29.82,SW,219,2.0,9.0,80,0.00,,SCT120,0.00,VWS V12.07,2013-07-06 10:47:00,
2013-07-06 05:48:00,68.6,62.2,29.82,SW,219,2.0,9.0,80,0.00,,SCT120,0.00,VWS V12.07,2013-07-06 10:48:00,
2013-07-06 05:49:00,68.6,62.2,29.82,SW,219,2.0,9.0,80,0.00,,SCT120,0.00,VWS V12.07,2013-07-06 10:49:00,
2013-07-06 05:50:00,68.8,62.4,29.81,SSW,205,2.0,3.0,80,0.00,,CLR,0.00,VWS V12.07,2013-07-06 10:50:00,
2013-07-06 05:52:00,68.4,62.0,29.82,SW,219,4.0,9.0,80,0.00,,SCT120,0.00,VWS V12.07,2013-07-06 10:52:00,
2013-07-06 05:54:00,68.4,62.0,29.82,SW,219,1.0,9.0,80,0.00,,SCT120,0.00,VWS V12.07,2013-07-06 10:54:00,
2013-07-06 05:55:00,68.4,61.6,29.82,SW,219,2.0,9.0,79,0.00,,SCT120,0.00,VWS V12.07,2013-07-06 10:55:00,
2013-07-06 05:57:00,68.4,62.0,29.82,SW,219,1.0,9.0,80,0.00,,SCT120,0.00,VWS V12.07,2013-07-06 10:57:00,
2013-07-06 05:59:00,68.4,62.0,29.82,SW,219,3.0,9.0,80,0.00,,SCT120,0.00,VWS V12.07,2013-07-06 10:59:00,
2013-07-06 06:01:00,68.4,62.3,29.82,SSW,204,1.0,9.0,81,0.00,,SCT120,0.00,VWS V12.07,2013-07-06 11:01:00,
2013-07-06 06:02:00,68.4,62.0,29.82,SSW,204,3.0,9.0,80,0.00,,SCT120,0.00,VWS V12.07,2013-07-06 11:02:00,
2013-07-06 06:03:00,68.4,62.0,29.82,SSW,204,1.0,9.0,80,0.00,,SCT120,0.00,VWS V12.07,2013-07-06 11:03:00,
2013-07-06 06:04:00,68.4,62.3,29.82,SSW,204,1.0,9.0,81,0.00,,SCT120,0.00,VWS V12.07,2013-07-06 11:04:00,
2013-07-06 06:06:00,68.4,62.0,29.82,SSW,204,0.0,9.0,80,0.00,,SCT120,0.00,VWS V12.07,2013-07-06 11:06:00,
2013-07-06 06:08:00,68.4,62.0,29.82,SSW,204,0.0,9.0,80,0.00,,SCT120,0.00,VWS V12.07,2013-07-06 11:08:00,
2013-07-06 06:10:00,68.4,62.0,29.82,SSW,204,1.0,9.0,80,0.00,,SCT120,0.00,VWS V12.07,2013-07-06 11:10:00,
2013-07-06 06:11:00,68.4,62.0,29.82,SSW,204,1.0,9.0,80,0.00,,SCT120,0.00,VWS V12.07,2013-07-06 11:11:00,
2013-07-06 06:13:00,68.4,62.3,29.83,SSW,204,2.0,9.0,81,0.00,,SCT120,0.00,VWS V12.07,2013-07-06 11:13:00,
2013-07-06 06:15:00,68.4,62.3,29.83,SSW,204,0.0,9.0,81,0.00,,SCT120,0.00,VWS V12.07,2013-07-06 11:15:00,
2013-07-06 06:17:00,68.4,62.3,29.83,SSW,204,0.0,9.0,81,0.00,,SCT120,0.00,VWS V12.07,2013-07-06 11:17:00,
2013-07-06 06:18:00,68.4,62.7,29.83,SSW,204,3.0,9.0,82,0.00,,SCT120,0.00,VWS V12.07,2013-07-06 11:18:00,
2013-07-06 06:19:00,68.4,62.7,29.83,SSW,204,2.0,9.0,82,0.00,,SCT120,0.00,VWS V12.07,2013-07-06 11:19:00,
2013-07-06 06:20:00,68.4,62.7,29.83,SSW,204,3.0,9.0,82,0.00,,SCT120,0.00,VWS V12.07,2013-07-06 11:20:00,
2013-07-06 06:21:00,68.4,62.7,29.83,SSW,205,3.0,9.0,82,0.00,,SCT120,0.00,VWS V12.07,2013-07-06 11:21:00,
2013-07-06 06:23:00,68.3,61.9,29.83,SSW,207,1.0,9.0,80,0.00,,SCT120,0.00,VWS V12.07,2013-07-06 11:23:00,
2013-07-06 06:24:00,68.3,61.9,29.83,SSW,207,1.0,9.0,80,0.00,,SCT120,0.00,VWS V12.07,2013-07-06 11:24:00,
2013-07-06 06:25:00,68.3,61.9,29.83,SSW,207,0.0,9.0,80,0.00,,SCT120,0.00,VWS V12.07,2013-07-06 11:25:00,
2013-07-06 06:26:00,68.3,62.2,29.83,SSW,207,2.0,9.0,81,0.00,,SCT120,0.00,VWS V12.07,2013-07-06 11:26:00,
2013-07-06 06:28:00,68.3,61.9,29.83,SSW,207,2.0,9.0,80,0.00,,SCT120,0.00,VWS V12.07,2013-07-06 11:28:00,
2013-07-06 06:29:00,68.3,62.2,29.83,SSW,207,2.0,9.0,81,0.00,,SCT120,0.00,VWS V12.07,2013-07-06 11:29:00,
2013-07-06 06:30:00,68.3,62.2,29.83,SSW,207,1.0,9.0,81,0.00,,SCT120,0.00,VWS V12.07,2013-07-06 11:30:00,
2013-07-06 06:31:00,68.3,62.2,29.83,SSW,207,2.0,9.0,81,0.00,,SCT120,0.00,VWS V12.07,2013-07-06 11:31:00,
2013-07-06 06:34:00,68.3,62.2,29.83,SSW,207,2.0,9.0,81,0.00,,SCT120,0.00,VWS V12.07,2013-07-06 11:34:00,
2013-07-06 06:35:00,68.3,62.2,29.83,SSW,207,2.0,9.0,81,0.00,,SCT120,0.00,VWS V12.07,2013-07-06 11:35:00,
2013-07-06 06:36:00,68.3,61.9,29.83,SSW,207,0.0,9.0,80,0.00,,SCT120,0.00,VWS V12.07,2013-07-06 11:36:00,
2013-07-06 06:39:00,68.3,61.9,29.83,SSW,207,1.0,9.0,80,0.00,,SCT120,0.00,VWS V12.07,2013-07-06 11:39:00,
2013-07-06 06:40:00,68.3,62.2,29.83,SSW,207,3.0,9.0,81,0.00,,SCT120,0.00,VWS V12.07,2013-07-06 11:40:00,
2013-07-06 06:41:00,68.3,62.2,29.83,SSW,207,2.0,9.0,81,0.00,,SCT120,0.00,VWS V12.07,2013-07-06 11:41:00,
2013-07-06 06:45:00,68.3,62.2,29.83,SSW,207,1.0,9.0,81,0.00,,SCT120,0.00,VWS V12.07,2013-07-06 11:45:00,
2013-07-06 06:46:00,68.3,62.2,29.83,SSW,207,1.0,9.0,81,0.00,,SCT120,0.00,VWS V12.07,2013-07-06 11:46:00,
2013-07-06 06:47:00,68.3,62.2,29.83,SSW,207,0.0,9.0,81,0.00,,SCT120,0.00,VWS V12.07,2013-07-06 11:47:00,
2013-07-06 06:50:00,68.3,61.9,29.83,SSW,207,2.0,9.0,80,0.00,,SCT120,0.00,VWS V12.07,2013-07-06 11:50:00,
2013-07-06 06:51:00,68.3,61.9,29.83,SSW,207,1.0,9.0,80,0.00,,SCT120,0.00,VWS V12.07,2013-07-06 11:51:00,
2013-07-06 06:52:00,68.3,62.2,29.83,SSW,207,2.0,9.0,81,0.00,,SCT120,0.00,VWS V12.07,2013-07-06 11:52:00,
2013-07-06 06:56:00,68.4,62.0,29.83,SSW,207,1.0,9.0,80,0.00,,SCT120,0.00,VWS V12.07,2013-07-06 11:56:00,
2013-07-06 06:57:00,68.4,62.3,29.83,SSW,207,3.0,9.0,81,0.00,,SCT120,0.00,VWS V12.07,2013-07-06 11:57:00,
2013-07-06 07:00:00,68.3,62.2,29.83,SSW,207,1.0,3.0,81,0.00,,CLR,0.00,VWS V12.07,2013-07-06 12:00:00,
2013-07-06 07:01:00,68.4,62.3,29.83,SSW,207,2.0,9.0,81,0.00,,SCT120,0.00,VWS V12.07,2013-07-06 12:01:00,
2013-07-06 07:02:00,68.4,62.3,29.83,SSW,207,2.0,9.0,81,0.00,,SCT120,0.00,VWS V12.07,2013-07-06 12:02:00,
2013-07-06 07:03:00,68.4,62.0,29.83,SW,230,0.0,9.0,80,0.00,,SCT120,0.00,VWS V12.07,2013-07-06 12:03:00,
2013-07-06 07:06:00,68.4,62.0,29.83,SW,229,2.0,9.0,80,0.00,,SCT120,0.00,VWS V12.07,2013-07-06 12:06:00,
2013-07-06 07:07:00,68.6,62.5,29.83,SW,229,1.0,9.0,81,0.00,,SCT120,0.00,VWS V12.07,2013-07-06 12:07:00,
2013-07-06 07:08:00,68.6,62.5,29.83,SW,229,2.0,9.0,81,0.00,,SCT120,0.00,VWS V12.07,2013-07-06 12:08:00,
2013-07-06 07:10:00,68.4,62.0,29.83,SSW,207,3.0,4.0,80,0.00,,CLR,0.00,VWS V12.07,2013-07-06 12:10:00,
2013-07-06 07:11:00,68.6,62.2,29.83,SW,229,1.0,9.0,80,0.00,,SCT120,0.00,VWS V12.07,2013-07-06 12:11:00,
2013-07-06 07:13:00,68.6,62.5,29.83,SW,229,0.0,9.0,81,0.00,,SCT120,0.00,VWS V12.07,2013-07-06 12:13:00,
2013-07-06 07:14:00,68.6,62.5,29.83,SW,229,1.0,9.0,81,0.00,,SCT120,0.00,VWS V12.07,2013-07-06 12:14:00,
2013-07-06 07:16:00,68.6,62.2,29.83,SW,229,2.0,9.0,80,0.00,,SCT120,0.00,VWS V12.07,2013-07-06 12:16:00,
2013-07-06 07:18:00,68.8,62.4,29.83,SW,229,3.0,9.0,80,0.00,,SCT120,0.00,VWS V12.07,2013-07-06 12:18:00,
2013-07-06 07:19:00,68.8,62.7,29.83,SW,229,2.0,9.0,81,0.00,,SCT120,0.00,VWS V12.07,2013-07-06 12:19:00,
2013-07-06 07:20:00,68.4,62.0,29.83,SW,230,2.0,4.0,80,0.00,,CLR,0.00,VWS V12.07,2013-07-06 12:20:00,
2013-07-06 07:21:00,68.9,62.5,29.83,SW,229,2.0,9.0,80,0.00,,SCT120,0.00,VWS V12.07,2013-07-06 12:21:00,
2013-07-06 07:23:00,68.9,62.5,29.83,SW,229,2.0,9.0,80,0.00,,SCT120,0.00,VWS V12.07,2013-07-06 12:23:00,
2013-07-06 07:24:00,68.9,62.5,29.83,SW,229,1.0,9.0,80,0.00,,SCT120,0.00,VWS V12.07,2013-07-06 12:24:00,
2013-07-06 07:25:00,69.1,62.7,29.83,SW,229,0.0,9.0,80,0.00,,SCT120,0.00,VWS V12.07,2013-07-06 12:25:00,
2013-07-06 07:27:00,69.1,63.0,29.83,SW,229,1.0,9.0,81,0.00,,SCT120,0.00,VWS V12.07,2013-07-06 12:27:00,
2013-07-06 07:28:00,69.3,62.9,29.83,SW,229,2.0,9.0,80,0.00,,SCT120,0.00,VWS V12.07,2013-07-06 12:28:00,
2013-07-06 07:29:00,69.3,62.9,29.83,SW,229,1.0,9.0,80,0.00,,SCT120,0.00,VWS V12.07,2013-07-06 12:29:00,
2013-07-06 07:30:00,69.3,62.9,29.83,SW,229,2.0,9.0,80,0.00,,SCT120,0.00,VWS V12.07,2013-07-06 12:30:00,
2013-07-06 07:32:00,69.4,62.6,29.83,SW,229,1.0,9.0,79,0.00,,SCT120,0.00,VWS V12.07,2013-07-06 12:32:00,
2013-07-06 07:33:00,69.4,63.0,29.83,SW,229,1.0,9.0,80,0.00,,SCT120,0.00,VWS V12.07,2013-07-06 12:33:00,
2013-07-06 07:34:00,69.4,63.0,29.83,SW,229,1.0,9.0,80,0.00,,SCT120,0.00,VWS V12.07,2013-07-06 12:34:00,
2013-07-06 07:36:00,69.6,62.8,29.83,SW,229,3.0,9.0,79,0.00,,SCT120,0.00,VWS V12.07,2013-07-06 12:36:00,
2013-07-06 07:37:00,69.6,62.8,29.83,SW,224,0.0,9.0,79,0.00,,SCT120,0.00,VWS V12.07,2013-07-06 12:37:00,
2013-07-06 07:39:00,69.6,62.4,29.83,SW,224,2.0,9.0,78,0.00,,SCT120,0.00,VWS V12.07,2013-07-06 12:39:00,
2013-07-06 07:40:00,68.9,62.5,29.83,SW,229,2.0,4.0,80,0.00,,CLR,0.00,VWS V12.07,2013-07-06 12:40:00,
2013-07-06 07:41:00,69.6,62.4,29.83,SW,224,3.0,9.0,78,0.00,,SCT120,0.00,VWS V12.07,2013-07-06 12:41:00,
2013-07-06 07:42:00,69.6,62.4,29.83,SW,224,1.0,9.0,78,0.00,,SCT120,0.00,VWS V12.07,2013-07-06 12:42:00,
2013-07-06 07:44:00,69.8,62.6,29.83,SW,224,1.0,9.0,78,0.00,,SCT120,0.00,VWS V12.07,2013-07-06 12:44:00,
2013-07-06 07:47:00,69.8,62.3,29.83,SW,224,1.0,9.0,77,0.00,,SCT120,0.00,VWS V12.07,2013-07-06 12:47:00,
2013-07-06 07:48:00,69.9,62.4,29.83,SW,224,0.0,9.0,77,0.00,,SCT120,0.00,VWS V12.07,2013-07-06 12:48:00,
2013-07-06 07:49:00,69.9,62.4,29.83,SW,224,3.0,9.0,77,0.00,,SCT120,0.00,VWS V12.07,2013-07-06 12:49:00,
2013-07-06 07:50:00,69.9,62.4,29.83,SW,224,2.0,9.0,77,0.00,,SCT120,0.00,VWS V12.07,2013-07-06 12:50:00,
2013-07-06 07:51:00,69.9,62.4,29.83,SW,224,2.0,9.0,77,0.00,,SCT120,0.00,VWS V12.07,2013-07-06 12:51:00,
2013-07-06 07:53:00,70.1,62.6,29.83,SW,224,2.0,9.0,77,0.00,,SCT120,0.00,VWS V12.07,2013-07-06 12:53:00,
2013-07-06 07:54:00,70.1,62.6,29.83,SW,224,3.0,9.0,77,0.00,,SCT120,0.00,VWS V12.07,2013-07-06 12:54:00,
2013-07-06 07:55:00,70.3,62.8,29.83,SW,224,0.0,9.0,77,0.00,,SCT120,0.00,VWS V12.07,2013-07-06 12:55:00,
2013-07-06 07:56:00,70.3,62.4,29.83,SW,224,1.0,9.0,76,0.00,,SCT120,0.00,VWS V12.07,2013-07-06 12:56:00,
2013-07-06 07:58:00,70.3,62.8,29.83,SW,224,3.0,9.0,77,0.00,,SCT120,0.00,VWS V12.07,2013-07-06 12:58:00,
2013-07-06 07:59:00,70.4,62.5,29.83,SW,224,2.0,9.0,76,0.00,,SCT120,0.00,VWS V12.07,2013-07-06 12:59:00,
2013-07-06 08:00:00,70.4,62.5,29.83,SW,224,3.0,9.0,76,0.00,,SCT120,0.00,VWS V12.07,2013-07-06 13:00:00,
2013-07-06 08:01:00,70.4,62.5,29.83,SW,224,0.0,9.0,76,0.00,,SCT120,0.00,VWS V12.07,2013-07-06 13:01:00,
2013-07-06 08:02:00,70.4,62.5,29.83,SW,224,0.0,9.0,76,0.00,,SCT120,0.00,VWS V12.07,2013-07-06 13:02:00,
2013-07-06 08:03:00,70.6,63.0,29.83,SW,224,3.0,9.0,77,0.00,,SCT120,0.00,VWS V12.07,2013-07-06 13:03:00,
2013-07-06 08:04:00,70.6,62.7,29.83,SW,224,2.0,9.0,76,0.00,,SCT120,0.00,VWS V12.07,2013-07-06 13:04:00,
2013-07-06 08:05:00,70.6,62.7,29.83,SW,224,0.0,9.0,76,0.00,,SCT120,0.00,VWS V12.07,2013-07-06 13:05:00,
2013-07-06 08:07:00,70.8,62.9,29.83,SW,224,1.0,9.0,76,0.00,,SCT120,0.00,VWS V12.07,2013-07-06 13:07:00,
2013-07-06 08:08:00,70.8,62.9,29.83,SW,224,1.0,9.0,76,0.00,,SCT120,0.00,VWS V12.07,2013-07-06 13:08:00,
2013-07-06 08:09:00,70.9,63.3,29.83,SW,224,2.0,9.0,77,0.00,,SCT120,0.00,VWS V12.07,2013-07-06 13:09:00,
2013-07-06 08:10:00,70.9,63.3,29.83,SW,224,2.0,9.0,77,0.00,,SCT120,0.00,VWS V12.07,2013-07-06 13:10:00,
2013-07-06 08:11:00,70.9,63.0,29.83,SW,224,1.0,9.0,76,0.00,,SCT120,0.00,VWS V12.07,2013-07-06 13:11:00,
2013-07-06 08:13:00,70.9,62.6,29.83,SW,224,0.0,9.0,75,0.00,,SCT120,0.00,VWS V12.07,2013-07-06 13:13:00,
2013-07-06 08:14:00,71.1,63.2,29.83,SW,224,0.0,9.0,76,0.00,,SCT120,0.00,VWS V12.07,2013-07-06 13:14:00,
2013-07-06 08:15:00,71.3,63.3,29.83,SW,224,2.0,9.0,76,0.00,,SCT120,0.00,VWS V12.07,2013-07-06 13:15:00,
2013-07-06 08:16:00,71.3,63.3,29.83,SW,224,1.0,9.0,76,0.00,,SCT120,0.00,VWS V12.07,2013-07-06 13:16:00,
2013-07-06 08:18:00,71.3,62.6,29.83,SW,224,1.0,9.0,74,0.00,,SCT120,0.00,VWS V12.07,2013-07-06 13:18:00,
2013-07-06 08:19:00,71.3,63.0,29.83,SW,224,3.0,9.0,75,0.00,,SCT120,0.00,VWS V12.07,2013-07-06 13:19:00,
2013-07-06 08:20:00,71.5,63.2,29.83,SW,224,1.0,9.0,75,0.00,,SCT120,0.00,VWS V12.07,2013-07-06 13:20:00,
2013-07-06 08:21:00,71.5,62.8,29.83,SW,224,2.0,9.0,74,0.00,,SCT120,0.00,VWS V12.07,2013-07-06 13:21:00,
2013-07-06 08:23:00,71.6,62.9,29.83,SW,224,4.0,9.0,74,0.00,,SCT120,0.00,VWS V12.07,2013-07-06 13:23:00,
2013-07-06 08:24:00,71.6,62.9,29.83,SW,224,1.0,9.0,74,0.00,,SCT120,0.00,VWS V12.07,2013-07-06 13:24:00,
2013-07-06 08:25:00,71.8,62.7,29.83,SW,224,0.0,9.0,73,0.00,,SCT120,0.00,VWS V12.07,2013-07-06 13:25:00,
2013-07-06 08:27:00,71.8,62.7,29.83,SW,224,2.0,9.0,73,0.00,,SCT120,0.00,VWS V12.07,2013-07-06 13:27:00,
2013-07-06 08:28:00,72.0,62.9,29.83,SW,224,1.0,9.0,73,0.00,,SCT120,0.00,VWS V12.07,2013-07-06 13:28:00,
2013-07-06 08:29:00,72.0,62.9,29.83,SW,224,1.0,9.0,73,0.00,,SCT120,0.00,VWS V12.07,2013-07-06 13:29:00,
2013-07-06 08:30:00,72.0,62.9,29.83,SW,224,4.0,9.0,73,0.00,,SCT120,0.00,VWS V12.07,2013-07-06 13:30:00,
2013-07-06 08:31:00,72.1,62.2,29.83,SW,225,5.0,9.0,71,0.00,,SCT120,0.00,VWS V12.07,2013-07-06 13:31:00,
2013-07-06 08:32:00,72.1,62.2,29.83,SW,225,1.0,9.0,71,0.00,,SCT120,0.00,VWS V12.07,2013-07-06 13:32:00,
2013-07-06 08:33:00,72.1,62.6,29.83,SW,225,2.0,9.0,72,0.00,,SCT120,0.00,VWS V12.07,2013-07-06 13:33:00,
2013-07-06 08:34:00,72.3,62.4,29.83,SW,225,2.0,9.0,71,0.00,,SCT120,0.00,VWS V12.07,2013-07-06 13:34:00,
2013-07-06 08:35:00,72.3,62.4,29.83,SW,218,2.0,9.0,71,0.00,,SCT120,0.00,VWS V12.07,2013-07-06 13:35:00,
2013-07-06 08:37:00,72.5,62.6,29.83,SW,218,2.0,9.0,71,0.00,,SCT120,0.00,VWS V12.07,2013-07-06 13:37:00,
2013-07-06 08:39:00,72.5,62.6,29.83,SW,218,1.0,9.0,71,0.00,,SCT120,0.00,VWS V12.07,2013-07-06 13:39:00,
2013-07-06 08:40:00,72.7,62.4,29.83,SW,218,3.0,9.0,70,0.00,,SCT120,0.00,VWS V12.07,2013-07-06 13:40:00,
2013-07-06 08:42:00,72.7,63.2,29.83,SW,218,1.0,9.0,72,0.00,,SCT120,0.00,VWS V12.07,2013-07-06 13:42:00,
2013-07-06 08:44:00,72.8,63.3,29.83,SW,218,2.0,9.0,72,0.00,,SCT120,0.00,VWS V12.07,2013-07-06 13:44:00,
2013-07-06 08:45:00,72.8,63.3,29.83,SW,218,1.0,9.0,72,0.00,,SCT120,0.00,VWS V12.07,2013-07-06 13:45:00,
2013-07-06 08:46:00,72.8,63.3,29.83,SW,218,0.0,9.0,72,0.00,,SCT120,0.00,VWS V12.07,2013-07-06 13:46:00,
2013-07-06 08:47:00,72.8,63.3,29.83,SW,218,1.0,9.0,72,0.00,,SCT120,0.00,VWS V12.07,2013-07-06 13:47:00,
2013-07-06 08:49:00,73.0,63.0,29.83,SW,218,1.0,9.0,71,0.00,,SCT120,0.00,VWS V12.07,2013-07-06 13:49:00,
2013-07-06 08:50:00,73.0,63.0,29.83,SW,218,2.0,9.0,71,0.00,,SCT120,0.00,VWS V12.07,2013-07-06 13:50:00,
2013-07-06 08:51:00,73.0,63.0,29.83,ESE,123,2.0,9.0,71,0.00,,SCT120,0.00,VWS V12.07,2013-07-06 13:51:00,
2013-07-06 08:53:00,73.2,63.6,29.83,SSW,201,3.0,9.0,72,0.00,,SCT120,0.00,VWS V12.07,2013-07-06 13:53:00,
2013-07-06 08:54:00,73.3,63.3,29.83,SSW,201,2.0,9.0,71,0.00,,SCT120,0.00,VWS V12.07,2013-07-06 13:54:00,
2013-07-06 08:55:00,73.3,63.7,29.83,SSW,201,1.0,9.0,72,0.00,,SCT120,0.00,VWS V12.07,2013-07-06 13:55:00,
2013-07-06 08:57:00,73.3,63.3,29.83,SSW,207,3.0,9.0,71,0.00,,SCT120,0.00,VWS V12.07,2013-07-06 13:57:00,
2013-07-06 08:58:00,73.3,62.9,29.83,SSW,208,1.0,9.0,70,0.00,,SCT120,0.00,VWS V12.07,2013-07-06 13:58:00,
2013-07-06 09:00:00,73.3,62.9,29.83,SSW,208,1.0,9.0,70,0.00,,SCT120,0.00,VWS V12.07,2013-07-06 14:00:00,
2013-07-06 09:02:00,73.5,63.1,29.83,SSW,208,1.0,9.0,70,0.00,,SCT120,0.00,VWS V12.07,2013-07-06 14:02:00,
2013-07-06 09:04:00,73.5,63.5,29.83,SSW,208,1.0,9.0,71,0.00,,SCT120,0.00,VWS V12.07,2013-07-06 14:04:00,
2013-07-06 09:05:00,73.7,63.7,29.83,SSW,208,2.0,9.0,71,0.00,,SCT120,0.00,VWS V12.07,2013-07-06 14:05:00,
2013-07-06 09:06:00,73.7,63.3,29.83,SSW,208,3.0,9.0,70,0.00,,SCT120,0.00,VWS V12.07,2013-07-06 14:06:00,
2013-07-06 09:08:00,73.7,63.3,29.83,SSW,207,0.0,9.0,70,0.00,,SCT120,0.00,VWS V12.07,2013-07-06 14:08:00,
2013-07-06 09:09:00,73.7,62.9,29.83,SSW,208,2.0,9.0,69,0.00,,SCT120,0.00,VWS V12.07,2013-07-06 14:09:00,
2013-07-06 09:10:00,73.2,62.8,29.83,SSW,201,0.0,4.0,70,0.00,,CLR,0.00,VWS V12.07,2013-07-06 14:10:00,
2013-07-06 09:11:00,73.9,63.5,29.83,SSW,208,3.0,9.0,70,0.00,,SCT120,0.00,VWS V12.07,2013-07-06 14:11:00,
2013-07-06 09:13:00,73.9,63.1,29.82,SSW,207,3.0,9.0,69,0.00,,SCT120,0.00,VWS V12.07,2013-07-06 14:13:00,
2013-07-06 09:15:00,73.9,62.7,29.82,SW,216,5.0,9.0,68,0.00,,SCT120,0.00,VWS V12.07,2013-07-06 14:15:00,
2013-07-06 09:16:00,73.9,62.3,29.82,SW,218,1.0,9.0,67,0.00,,SCT120,0.00,VWS V12.07,2013-07-06 14:16:00,
2013-07-06 09:18:00,73.9,62.7,29.82,SW,218,1.0,9.0,68,0.00,,SCT120,0.00,VWS V12.07,2013-07-06 14:18:00,
2013-07-06 09:20:00,74.0,63.6,29.82,SW,217,3.0,9.0,70,0.00,,SCT120,0.00,VWS V12.07,2013-07-06 14:20:00,
2013-07-06 09:21:00,74.0,63.6,29.82,SW,217,2.0,9.0,70,0.00,,SCT120,0.00,VWS V12.07,2013-07-06 14:21:00,
2013-07-06 09:24:00,74.2,63.8,29.82,SW,217,2.0,9.0,70,0.00,,SCT120,0.00,VWS V12.07,2013-07-06 14:24:00,
2013-07-06 09:26:00,74.2,63.0,29.82,SW,217,1.0,9.0,68,0.00,,SCT120,0.00,VWS V12.07,2013-07-06 14:26:00,
2013-07-06 09:27:00,74.2,63.0,29.82,SW,217,0.0,9.0,68,0.00,,SCT120,0.00,VWS V12.07,2013-07-06 14:27:00,
2013-07-06 09:29:00,74.6,64.2,29.82,SW,217,2.0,9.0,70,0.00,,SCT120,0.00,VWS V12.07,2013-07-06 14:29:00,
2013-07-06 09:30:00,73.9,63.5,29.82,SW,214,2.0,5.0,70,0.00,,CLR,0.00,VWS V12.07,2013-07-06 14:30:00,
2013-07-06 09:31:00,74.6,64.2,29.82,SW,217,0.0,9.0,70,0.00,,SCT120,0.00,VWS V12.07,2013-07-06 14:31:00,
2013-07-06 09:32:00,74.6,64.2,29.82,SW,217,2.0,9.0,70,0.00,,SCT120,0.00,VWS V12.07,2013-07-06 14:32:00,
2013-07-06 09:34:00,74.7,63.5,29.82,SW,217,2.0,9.0,68,0.00,,SCT120,0.00,VWS V12.07,2013-07-06 14:34:00,
2013-07-06 09:36:00,74.7,63.5,29.82,SW,217,1.0,9.0,68,0.00,,SCT120,0.00,VWS V12.07,2013-07-06 14:36:00,
2013-07-06 09:37:00,74.7,63.9,29.82,SW,217,3.0,9.0,69,0.00,,SCT120,0.00,VWS V12.07,2013-07-06 14:37:00,
2013-07-06 09:39:00,74.9,64.5,29.82,SW,217,1.0,9.0,70,0.00,,SCT120,0.00,VWS V12.07,2013-07-06 14:39:00,
2013-07-06 09:40:00,74.2,63.8,29.82,SW,217,1.0,5.0,70,0.00,,CLR,0.00,VWS V12.07,2013-07-06 14:40:00,
2013-07-06 09:41:00,75.1,63.8,29.82,SW,236,3.0,9.0,68,0.00,,SCT120,0.00,VWS V12.07,2013-07-06 14:41:00,
2013-07-06 09:42:00,75.1,63.8,29.82,SSW,212,5.0,9.0,68,0.00,,SCT120,0.00,VWS V12.07,2013-07-06 14:42:00,
2013-07-06 09:44:00,75.3,63.6,29.82,SSW,207,3.0,9.0,67,0.00,,SCT120,0.00,VWS V12.07,2013-07-06 14:44:00,
2013-07-06 09:47:00,75.3,64.0,29.82,SSW,210,1.0,9.0,68,0.00,,SCT120,0.00,VWS V12.07,2013-07-06 14:47:00,
2013-07-06 09:48:00,75.3,64.0,29.82,SSW,210,3.0,9.0,68,0.00,,SCT120,0.00,VWS V12.07,2013-07-06 14:48:00,
2013-07-06 09:50:00,75.4,63.7,29.82,SW,215,3.0,9.0,67,0.00,,SCT120,0.00,VWS V12.07,2013-07-06 14:50:00,
2013-07-06 09:52:00,75.4,63.7,29.82,SW,215,0.0,9.0,67,0.00,,SCT120,0.00,VWS V12.07,2013-07-06 14:52:00,
2013-07-06 09:53:00,75.6,63.9,29.82,SW,215,4.0,9.0,67,0.00,,SCT120,0.00,VWS V12.07,2013-07-06 14:53:00,
2013-07-06 09:55:00,75.6,63.9,29.82,SW,215,4.0,9.0,67,0.00,,SCT120,0.00,VWS V12.07,2013-07-06 14:55:00,
2013-07-06 09:57:00,75.6,63.5,29.82,SSW,194,0.0,9.0,66,0.00,,SCT120,0.00,VWS V12.07,2013-07-06 14:57:00,
2013-07-06 09:58:00,75.6,63.5,29.82,SW,219,3.0,9.0,66,0.00,,SCT120,0.00,VWS V12.07,2013-07-06 14:58:00,
2013-07-06 10:00:00,75.6,62.6,29.82,SW,229,2.0,9.0,64,0.00,,SCT120,0.00,VWS V12.07,2013-07-06 15:00:00,
2013-07-06 10:01:00,75.6,62.6,29.82,SW,229,4.0,9.0,64,0.00,,SCT120,0.00,VWS V12.07,2013-07-06 15:01:00,
2013-07-06 10:03:00,75.8,64.1,29.82,SW,217,4.0,9.0,67,0.00,,SCT120,0.00,VWS V12.07,2013-07-06 15:03:00,
2013-07-06 10:05:00,75.8,62.8,29.82,SW,221,3.0,9.0,64,0.00,,SCT120,0.00,VWS V12.07,2013-07-06 15:05:00,
2013-07-06 10:07:00,75.8,62.8,29.82,SW,221,4.0,9.0,64,0.00,,SCT120,0.00,VWS V12.07,2013-07-06 15:07:00,
2013-07-06 10:08:00,76.0,63.4,29.82,SW,221,3.0,9.0,65,0.00,,SCT120,0.00,VWS V12.07,2013-07-06 15:08:00,
2013-07-06 10:09:00,76.0,63.0,29.82,SSW,204,5.0,9.0,64,0.00,,SCT120,0.00,VWS V12.07,2013-07-06 15:09:00,
2013-07-06 10:10:00,76.0,62.5,29.82,WSW,238,3.0,9.0,63,0.00,,SCT120,0.00,VWS V12.07,2013-07-06 15:10:00,
2013-07-06 10:12:00,76.1,63.0,29.82,SW,221,3.0,9.0,64,0.00,,SCT120,0.00,VWS V12.07,2013-07-06 15:12:00,
2013-07-06 10:13:00,76.1,63.0,29.82,SW,221,2.0,9.0,64,0.00,,SCT120,0.00,VWS V12.07,2013-07-06 15:13:00,
2013-07-06 10:14:00,76.1,63.0,29.82,SW,221,3.0,9.0,64,0.00,,SCT120,0.00,VWS V12.07,2013-07-06 15:14:00,
2013-07-06 10:16:00,76.3,63.2,29.82,SW,224,3.0,9.0,64,0.00,,SCT120,0.00,VWS V12.07,2013-07-06 15:16:00,
2013-07-06 10:17:00,76.3,63.2,29.82,SW,224,3.0,9.0,64,0.00,,SCT120,0.00,VWS V12.07,2013-07-06 15:17:00,
2013-07-06 10:19:00,76.5,63.9,29.82,SW,224,3.0,9.0,65,0.00,,SCT120,0.00,VWS V12.07,2013-07-06 15:19:00,
2013-07-06 10:20:00,75.8,63.2,29.82,SSW,213,5.0,6.0,65,0.00,,CLR,0.00,VWS V12.07,2013-07-06 15:20:00,
2013-07-06 10:21:00,76.5,63.4,29.82,SW,224,1.0,9.0,64,0.00,,SCT120,0.00,VWS V12.07,2013-07-06 15:21:00,
2013-07-06 10:23:00,76.7,64.1,29.82,SW,224,2.0,9.0,65,0.00,,SCT120,0.00,VWS V12.07,2013-07-06 15:23:00,
2013-07-06 10:24:00,76.7,64.1,29.82,SW,224,1.0,9.0,65,0.00,,SCT120,0.00,VWS V12.07,2013-07-06 15:24:00,
2013-07-06 10:25:00,76.8,64.6,29.82,SW,224,1.0,9.0,66,0.00,,SCT120,0.00,VWS V12.07,2013-07-06 15:25:00,
2013-07-06 10:26:00,76.8,64.2,29.82,SW,224,3.0,9.0,65,0.00,,SCT120,0.00,VWS V12.07,2013-07-06 15:26:00,
2013-07-06 10:28:00,77.0,64.3,29.81,SW,224,0.0,9.0,65,0.00,,SCT120,0.00,VWS V12.07,2013-07-06 15:28:00,
2013-07-06 10:30:00,77.2,64.5,29.81,SSW,207,4.0,9.0,65,0.00,,SCT120,0.00,VWS V12.07,2013-07-06 15:30:00,
2013-07-06 10:32:00,77.4,63.8,29.81,SW,236,2.0,9.0,63,0.00,,SCT120,0.00,VWS V12.07,2013-07-06 15:32:00,
2013-07-06 10:33:00,77.4,64.3,29.81,SW,216,3.0,9.0,64,0.00,,SCT120,0.00,VWS V12.07,2013-07-06 15:33:00,
2013-07-06 10:35:00,77.6,64.0,29.81,SW,226,4.0,9.0,63,0.00,,SCT120,0.00,VWS V12.07,2013-07-06 15:35:00,
2013-07-06 10:36:00,77.6,63.1,29.81,SW,220,4.0,9.0,61,0.00,,SCT120,0.00,VWS V12.07,2013-07-06 15:36:00,
2013-07-06 10:37:00,77.6,62.6,29.81,SSW,193,1.0,9.0,60,0.00,,SCT120,0.00,VWS V12.07,2013-07-06 15:37:00,
2013-07-06 10:38:00,77.6,63.1,29.81,SW,230,2.0,9.0,61,0.00,,SCT120,0.00,VWS V12.07,2013-07-06 15:38:00,
2013-07-06 10:41:00,77.7,62.7,29.81,SW,223,2.0,9.0,60,0.00,,SCT120,0.00,VWS V12.07,2013-07-06 15:41:00,
2013-07-06 10:42:00,77.7,63.2,29.81,SW,218,1.0,9.0,61,0.00,,SCT120,0.00,VWS V12.07,2013-07-06 15:42:00,
2013-07-06 10:43:00,77.9,63.8,29.81,SW,218,0.0,9.0,62,0.00,,SCT120,0.00,VWS V12.07,2013-07-06 15:43:00,
2013-07-06 10:46:00,77.9,63.4,29.81,SW,218,3.0,9.0,61,0.00,,SCT120,0.00,VWS V12.07,2013-07-06 15:46:00,
2013-07-06 10:47:00,77.9,63.4,29.81,SW,218,1.0,9.0,61,0.00,,SCT120,0.00,VWS V12.07,2013-07-06 15:47:00,
2013-07-06 10:50:00,78.3,64.2,29.81,SW,224,1.0,9.0,62,0.00,,SCT120,0.00,VWS V12.07,2013-07-06 15:50:00,
2013-07-06 10:51:00,78.3,64.2,29.81,SW,224,2.0,9.0,62,0.00,,SCT120,0.00,VWS V12.07,2013-07-06 15:51:00,
2013-07-06 10:52:00,78.3,63.8,29.81,SW,224,2.0,9.0,61,0.00,,SCT120,0.00,VWS V12.07,2013-07-06 15:52:00,
2013-07-06 10:56:00,78.5,63.5,29.81,SW,225,2.0,9.0,60,0.00,,SCT120,0.00,VWS V12.07,2013-07-06 15:56:00,
2013-07-06 10:57:00,78.5,63.0,29.81,SSW,212,4.0,9.0,59,0.00,,SCT120,0.00,VWS V12.07,2013-07-06 15:57:00,
2013-07-06 10:58:00,78.5,63.0,29.81,SSW,212,1.0,9.0,59,0.00,,SCT120,0.00,VWS V12.07,2013-07-06 15:58:00,
2013-07-06 11:00:00,77.9,64.3,29.81,SW,218,3.0,5.0,63,0.00,,CLR,0.00,VWS V12.07,2013-07-06 16:00:00,
2013-07-06 11:02:00,78.6,63.1,29.81,SSW,198,3.0,9.0,59,0.00,,SCT120,0.00,VWS V12.07,2013-07-06 16:02:00,
2013-07-06 11:03:00,78.6,63.1,29.81,SSW,200,2.0,9.0,59,0.00,,SCT120,0.00,VWS V12.07,2013-07-06 16:03:00,
2013-07-06 11:08:00,79.2,62.7,29.81,SW,226,2.0,9.0,57,0.00,,SCT120,0.00,VWS V12.07,2013-07-06 16:08:00,
2013-07-06 11:09:00,79.2,63.2,29.81,SW,229,3.0,9.0,58,0.00,,SCT120,0.00,VWS V12.07,2013-07-06 16:09:00,
2013-07-06 11:10:00,78.3,63.3,29.81,SW,224,3.0,4.0,60,0.00,,CLR,0.00,VWS V12.07,2013-07-06 16:10:00,
2013-07-06 11:13:00,79.4,64.3,29.81,WSW,237,2.0,9.0,60,0.00,,SCT120,0.00,VWS V12.07,2013-07-06 16:13:00,
2013-07-06 11:14:00,79.4,63.3,29.81,SW,218,4.0,9.0,58,0.00,,SCT120,0.00,VWS V12.07,2013-07-06 16:14:00,
2013-07-06 11:15:00,79.4,62.9,29.81,SSW,204,3.0,9.0,57,0.00,,SCT120,0.00,VWS V12.07,2013-07-06 16:15:00,
2013-07-06 11:18:00,79.6,62.5,29.81,SSW,209,3.0,9.0,56,0.00,,SCT120,0.00,VWS V12.07,2013-07-06 16:18:00,
2013-07-06 11:19:00,79.6,62.5,29.81,SW,226,4.0,9.0,56,0.00,,SCT120,0.00,VWS V12.07,2013-07-06 16:19:00,
2013-07-06 11:20:00,78.8,63.3,29.81,SSW,200,0.0,7.0,59,0.00,,CLR,0.00,VWS V12.07,2013-07-06 16:20:00,
2013-07-06 11:21:00,79.6,63.0,29.81,SW,225,2.0,9.0,57,0.00,,SCT120,0.00,VWS V12.07,2013-07-06 16:21:00,
2013-07-06 11:22:00,79.8,63.2,29.81,SW,225,3.0,9.0,57,0.00,,SCT120,0.00,VWS V12.07,2013-07-06 16:22:00,
2013-07-06 11:23:00,79.9,63.3,29.81,SSW,193,3.0,9.0,57,0.00,,SCT120,0.00,VWS V12.07,2013-07-06 16:23:00,
2013-07-06 11:25:00,79.9,63.8,29.81,SSW,209,1.0,9.0,58,0.00,,SCT120,0.00,VWS V12.07,2013-07-06 16:25:00,
2013-07-06 11:26:00,79.9,63.8,29.81,SSW,209,3.0,9.0,58,0.00,,SCT120,0.00,VWS V12.07,2013-07-06 16:26:00,
2013-07-06 11:29:00,79.9,63.3,29.81,SW,214,3.0,9.0,57,0.00,,SCT120,0.00,VWS V12.07,2013-07-06 16:29:00,
2013-07-06 11:30:00,80.1,63.5,29.81,SW,215,2.0,9.0,57,0.00,,SCT120,0.00,VWS V12.07,2013-07-06 16:30:00,
2013-07-06 11:31:00,80.1,63.0,29.81,SSW,210,2.0,9.0,56,0.00,,SCT120,0.00,VWS V12.07,2013-07-06 16:31:00,
2013-07-06 11:34:00,80.3,62.7,29.81,SW,215,2.0,9.0,55,0.00,,SCT120,0.00,VWS V12.07,2013-07-06 16:34:00,
2013-07-06 11:36:00,80.3,63.2,29.81,ESE,117,2.0,9.0,56,0.00,,SCT120,0.00,VWS V12.07,2013-07-06 16:36:00,
2013-07-06 11:37:00,80.3,62.7,29.81,SSW,208,2.0,9.0,55,0.00,,SCT120,0.00,VWS V12.07,2013-07-06 16:37:00,
2013-07-06 11:39:00,80.3,63.2,29.81,SW,216,2.0,9.0,56,0.00,,SCT120,0.00,VWS V12.07,2013-07-06 16:39:00,
2013-07-06 11:40:00,79.9,63.3,29.81,SSW,209,4.0,6.0,57,0.00,,CLR,0.00,VWS V12.07,2013-07-06 16:40:00,
2013-07-06 11:42:00,80.5,63.9,29.81,SSW,200,3.0,9.0,57,0.00,,SCT120,0.00,VWS V12.07,2013-07-06 16:42:00,
2013-07-06 11:46:00,80.7,64.1,29.81,SSW,205,3.0,9.0,57,0.00,,SCT120,0.00,VWS V12.07,2013-07-06 16:46:00,
2013-07-06 11:47:00,80.7,64.6,29.81,SSW,204,1.0,9.0,58,0.00,,SCT120,0.00,VWS V12.07,2013-07-06 16:47:00,
2013-07-06 11:50:00,80.3,63.7,29.81,SW,215,2.0,5.0,57,0.00,,CLR,0.00,VWS V12.07,2013-07-06 16:50:00,
2013-07-06 11:51:00,80.7,63.0,29.81,SSW,205,2.0,9.0,55,0.00,,SCT120,0.00,VWS V12.07,2013-07-06 16:51:00,
2013-07-06 11:52:00,80.7,63.0,29.81,SSW,205,2.0,9.0,55,0.00,,SCT120,0.00,VWS V12.07,2013-07-06 16:52:00,
2013-07-06 11:53:00,80.7,64.1,29.81,SSW,205,2.0,9.0,57,0.00,,SCT120,0.00,VWS V12.07,2013-07-06 16:53:00,
2013-07-06 11:57:00,81.1,65.9,29.81,SSW,205,2.0,9.0,60,0.00,,SCT120,0.00,VWS V12.07,2013-07-06 16:57:00,
2013-07-06 11:58:00,81.1,65.4,29.80,SSW,205,2.0,9.0,59,0.00,,SCT120,0.00,VWS V12.07,2013-07-06 16:58:00,
2013-07-06 12:00:00,80.7,64.1,29.81,SSW,200,3.0,5.0,57,0.00,,CLR,0.00,VWS V12.07,2013-07-06 17:00:00,
2013-07-06 12:02:00,81.2,64.5,29.80,SW,229,3.0,9.0,57,0.00,,SCT120,0.00,VWS V12.07,2013-07-06 17:02:00,
2013-07-06 12:03:00,81.2,64.5,29.80,SSW,195,1.0,9.0,57,0.00,,SCT120,0.00,VWS V12.07,2013-07-06 17:03:00,
2013-07-06 12:09:00,81.4,64.2,29.80,SSW,205,3.0,9.0,56,0.00,,SCT120,0.00,VWS V12.07,2013-07-06 17:09:00,
2013-07-06 12:10:00,80.9,64.2,29.81,SSW,205,2.0,5.0,57,0.00,,CLR,0.00,VWS V12.07,2013-07-06 17:10:00,
2013-07-06 12:11:00,81.4,64.2,29.80,SW,221,3.0,9.0,56,0.00,,SCT120,0.00,VWS V12.07,2013-07-06 17:11:00,
2013-07-06 12:14:00,81.4,62.6,29.80,SW,221,2.0,9.0,53,0.00,,SCT120,0.00,VWS V12.07,2013-07-06 17:14:00,
2013-07-06 12:17:00,81.4,63.2,29.80,SW,219,2.0,9.0,54,0.00,,SCT120,0.00,VWS V12.07,2013-07-06 17:17:00,
2013-07-06 12:19:00,81.4,63.2,29.80,SW,219,4.0,9.0,54,0.00,,SCT120,0.00,VWS V12.07,2013-07-06 17:19:00,
2013-07-06 12:20:00,81.2,64.5,29.80,SSW,195,3.0,5.0,57,0.00,,CLR,0.00,VWS V12.07,2013-07-06 17:20:00,
2013-07-06 12:24:00,81.8,64.1,29.80,SW,219,2.0,9.0,55,0.00,,SCT120,0.00,VWS V12.07,2013-07-06 17:24:00,
2013-07-06 12:25:00,81.8,64.6,29.80,SW,219,1.0,9.0,56,0.00,,SCT120,0.00,VWS V12.07,2013-07-06 17:25:00,
2013-07-06 12:26:00,81.8,64.6,29.80,SW,219,2.0,9.0,56,0.00,,SCT120,0.00,VWS V12.07,2013-07-06 17:26:00,
2013-07-06 12:30:00,81.8,63.0,29.79,SSW,212,4.0,9.0,53,0.00,,SCT120,0.00,VWS V12.07,2013-07-06 17:30:00,
2013-07-06 12:31:00,81.8,63.0,29.79,SSW,212,4.0,9.0,53,0.00,,SCT120,0.00,VWS V12.07,2013-07-06 17:31:00,
2013-07-06 12:36:00,81.6,62.8,29.79,SW,226,4.0,9.0,53,0.00,,SCT120,0.00,VWS V12.07,2013-07-06 17:36:00,
2013-07-06 12:37:00,81.6,63.4,29.79,SW,226,3.0,9.0,54,0.00,,SCT120,0.00,VWS V12.07,2013-07-06 17:37:00,
2013-07-06 12:40:00,81.8,63.5,29.80,SW,219,4.0,5.0,54,0.00,,CLR,0.00,VWS V12.07,2013-07-06 17:40:00,
2013-07-06 12:42:00,81.8,64.6,29.79,SW,222,4.0,9.0,56,0.00,,SCT120,0.00,VWS V12.07,2013-07-06 17:42:00,
2013-07-06 12:48:00,82.2,64.4,29.79,SSW,208,4.0,9.0,55,0.00,,SCT120,0.00,VWS V12.07,2013-07-06 17:48:00,
2013-07-06 12:50:00,81.6,62.8,29.79,SSW,206,2.0,6.0,53,0.00,,CLR,0.00,VWS V12.07,2013-07-06 17:50:00,
2013-07-06 12:54:00,82.2,63.4,29.79,SSW,208,3.0,9.0,53,0.00,,SCT120,0.00,VWS V12.07,2013-07-06 17:54:00,
2013-07-06 12:59:00,82.2,63.4,29.79,SW,221,4.0,9.0,53,0.00,,SCT120,0.00,VWS V12.07,2013-07-06 17:59:00,
2013-07-06 13:00:00,82.0,64.3,29.79,SW,222,3.0,7.0,55,0.00,,CLR,0.00,VWS V12.07,2013-07-06 18:00:00,
2013-07-06 13:01:00,82.4,64.6,29.79,SW,221,2.0,9.0,55,0.00,,SCT120,0.00,VWS V12.07,2013-07-06 18:01:00,
2013-07-06 13:05:00,82.6,64.3,29.79,SW,221,3.0,9.0,54,0.00,,SCT120,0.00,VWS V12.07,2013-07-06 18:05:00,
2013-07-06 13:06:00,82.6,63.8,29.79,SW,220,1.0,9.0,53,0.00,,SCT120,0.00,VWS V12.07,2013-07-06 18:06:00,
2013-07-06 13:10:00,82.2,63.4,29.79,SSW,208,1.0,6.0,53,0.00,,CLR,0.00,VWS V12.07,2013-07-06 18:10:00,
2013-07-06 13:11:00,82.6,64.3,29.79,SW,220,2.0,2.0,54,0.00,,CLR,0.00,VWS V12.07,2013-07-06 18:11:00,
2013-07-06 13:12:00,82.6,64.3,29.79,SW,230,2.0,4.0,54,0.00,,CLR,0.00,VWS V12.07,2013-07-06 18:12:00,
2013-07-06 13:18:00,82.6,63.8,29.78,SW,228,1.0,4.0,53,0.00,,CLR,0.00,VWS V12.07,2013-07-06 18:18:00,
2013-07-06 13:19:00,82.6,64.3,29.78,SW,228,1.0,4.0,54,0.00,,CLR,0.00,VWS V12.07,2013-07-06 18:19:00,
2013-07-06 13:24:00,82.4,65.7,29.78,SW,217,2.0,4.0,57,0.00,,CLR,0.00,VWS V12.07,2013-07-06 18:24:00,
2013-07-06 13:25:00,82.6,65.8,29.78,SW,228,3.0,5.0,57,0.00,,CLR,0.00,VWS V12.07,2013-07-06 18:25:00,
2013-07-06 13:29:00,82.0,64.8,29.79,SW,214,4.0,5.0,56,0.00,,CLR,0.00,VWS V12.07,2013-07-06 18:29:00,
2013-07-06 13:30:00,82.2,63.9,29.79,SW,216,6.0,6.0,54,0.00,,CLR,0.00,VWS V12.07,2013-07-06 18:30:00,
2013-07-06 13:34:00,82.2,63.4,29.79,SW,232,4.0,6.0,53,0.00,,SCT055,0.00,VWS V12.07,2013-07-06 18:34:00,
2013-07-06 13:35:00,82.2,63.4,29.79,SW,218,4.0,6.0,53,0.00,,SCT055,0.00,VWS V12.07,2013-07-06 18:35:00,
2013-07-06 13:37:00,82.2,63.4,29.79,SW,214,3.0,6.0,53,0.00,,SCT055,0.00,VWS V12.07,2013-07-06 18:37:00,
2013-07-06 13:39:00,82.4,63.6,29.79,SSW,196,3.0,6.0,53,0.00,,SCT055,0.00,VWS V12.07,2013-07-06 18:39:00,
2013-07-06 13:42:00,82.8,63.9,29.79,SW,218,3.0,6.0,53,0.00,,SCT055,0.00,VWS V12.07,2013-07-06 18:42:00,
2013-07-06 13:43:00,82.8,63.9,29.78,SW,218,3.0,6.0,53,0.00,,SCT055,0.00,VWS V12.07,2013-07-06 18:43:00,
2013-07-06 13:45:00,83.0,65.2,29.78,SW,218,1.0,3.0,55,0.00,,SCT055,0.00,VWS V12.07,2013-07-06 18:45:00,
2013-07-06 13:48:00,83.4,66.1,29.78,SSW,193,5.0,5.0,56,0.00,,SCT055,0.00,VWS V12.07,2013-07-06 18:48:00,
2013-07-06 13:50:00,83.4,65.0,29.78,SSW,199,3.0,5.0,54,0.00,,SCT090,0.00,VWS V12.07,2013-07-06 18:50:00,
2013-07-06 13:53:00,83.2,64.8,29.78,SSW,206,1.0,5.0,54,0.00,,SCT090,0.00,VWS V12.07,2013-07-06 18:53:00,
2013-07-06 13:55:00,83.4,66.6,29.78,SSW,204,0.0,2.0,57,0.00,,SCT090,0.00,VWS V12.07,2013-07-06 18:55:00,
2013-07-06 13:59:00,83.4,65.0,29.78,SSW,204,3.0,4.0,54,0.00,,SCT090,0.00,VWS V12.07,2013-07-06 18:59:00,
2013-07-06 14:00:00,83.6,66.3,29.78,SSW,198,3.0,4.0,56,0.00,,SCT090,0.00,VWS V12.07,2013-07-06 19:00:00,
2013-07-06 14:05:00,82.8,63.4,29.78,SW,215,2.0,4.0,52,0.00,,SCT090,0.00,VWS V12.07,2013-07-06 19:05:00,
2013-07-06 14:06:00,82.8,63.9,29.78,SW,215,1.0,5.0,53,0.00,,SCT090,0.00,VWS V12.07,2013-07-06 19:06:00,
2013-07-06 14:10:00,83.2,64.8,29.78,SW,215,1.0,5.0,54,0.00,,SCT090,0.00,VWS V12.07,2013-07-06 19:10:00,
2013-07-06 14:11:00,83.2,65.4,29.78,SW,215,2.0,5.0,55,0.00,,SCT090,0.00,VWS V12.07,2013-07-06 19:11:00,
2013-07-06 14:13:00,83.0,65.7,29.78,SW,215,2.0,5.0,56,0.00,,SCT090,0.00,VWS V12.07,2013-07-06 19:13:00,
2013-07-06 14:16:00,82.6,65.8,29.78,SW,215,1.0,3.0,57,0.00,,CLR,0.00,VWS V12.07,2013-07-06 19:16:00,
2013-07-06 14:18:00,82.4,66.7,29.78,SW,215,3.0,3.0,59,0.00,,SCT090,0.00,VWS V12.07,2013-07-06 19:18:00,
2013-07-06 14:22:00,82.8,67.0,29.78,SW,215,0.0,3.0,59,0.00,,SCT090,0.00,VWS V12.07,2013-07-06 19:22:00,
2013-07-06 14:24:00,83.0,67.2,29.78,SW,215,1.0,3.0,59,0.00,,SCT090,0.00,VWS V12.07,2013-07-06 19:24:00,
2013-07-06 14:27:00,83.2,66.9,29.78,South,186,0.0,3.0,58,0.00,,SCT090,0.00,VWS V12.07,2013-07-06 19:27:00,
2013-07-06 14:29:00,83.2,65.9,29.77,South,189,2.0,4.0,56,0.00,,SCT090,0.00,VWS V12.07,2013-07-06 19:29:00,
2013-07-06 14:32:00,83.2,65.9,29.77,South,191,2.0,4.0,56,0.00,,SCT090,0.00,VWS V12.07,2013-07-06 19:32:00,
2013-07-06 14:35:00,83.2,64.3,29.77,SSW,206,2.0,4.0,53,0.00,,SCT085,0.00,VWS V12.07,2013-07-06 19:35:00,
2013-07-06 14:37:00,83.4,66.1,29.77,SSW,206,2.0,4.0,56,0.00,,SCT085,0.00,VWS V12.07,2013-07-06 19:37:00,
2013-07-06 14:39:00,83.4,65.0,29.77,SSW,209,1.0,4.0,54,0.00,,SCT085,0.00,VWS V12.07,2013-07-06 19:39:00,
2013-07-06 14:40:00,83.4,65.0,29.77,SSW,209,2.0,4.0,54,0.00,,SCT085,0.00,VWS V12.07,2013-07-06 19:40:00,
2013-07-06 14:43:00,83.2,65.4,29.77,SSW,205,3.0,4.0,55,0.00,,SCT085,0.00,VWS V12.07,2013-07-06 19:43:00,
2013-07-06 14:45:00,83.2,64.8,29.77,SSW,205,0.0,3.0,54,0.00,,SCT085,0.00,VWS V12.07,2013-07-06 19:45:00,
2013-07-06 14:48:00,83.2,66.4,29.77,SSW,205,3.0,3.0,57,0.00,,SCT085,0.00,VWS V12.07,2013-07-06 19:48:00,
2013-07-06 14:50:00,83.2,65.9,29.77,SSW,205,2.0,4.0,56,0.00,,SCT080,0.00,VWS V12.07,2013-07-06 19:50:00,
2013-07-06 14:54:00,83.2,64.8,29.77,SW,224,2.0,4.0,54,0.00,,SCT080,0.00,VWS V12.07,2013-07-06 19:54:00,
2013-07-06 14:55:00,83.2,65.9,29.77,SW,224,1.0,4.0,56,0.00,,SCT080,0.00,VWS V12.07,2013-07-06 19:55:00,
2013-07-06 14:56:00,83.2,65.9,29.77,SW,223,2.0,4.0,56,0.00,,SCT080,0.00,VWS V12.07,2013-07-06 19:56:00,
2013-07-06 14:59:00,83.4,66.6,29.78,SW,223,4.0,4.0,57,0.00,,SCT080,0.00,VWS V12.07,2013-07-06 19:59:00,
2013-07-06 15:00:00,83.4,66.6,29.78,SW,223,2.0,4.0,57,0.00,,SCT080,0.00,VWS V12.07,2013-07-06 20:00:00,
2013-07-06 15:01:00,83.6,65.7,29.78,SW,223,0.0,4.0,55,0.00,,SCT080,0.00,VWS V12.07,2013-07-06 20:01:00,
2013-07-06 15:05:00,83.6,66.3,29.78,SW,223,2.0,4.0,56,0.00,,SCT080,0.00,VWS V12.07,2013-07-06 20:05:00,
2013-07-06 15:07:00,83.2,65.9,29.78,SW,223,1.0,4.0,56,0.00,,SCT080,0.00,VWS V12.07,2013-07-06 20:07:00,
2013-07-06 15:10:00,83.0,66.2,29.78,South,181,1.0,4.0,57,0.00,,SCT080,0.00,VWS V12.07,2013-07-06 20:10:00,
2013-07-06 15:11:00,83.0,66.7,29.78,SSE,167,4.0,4.0,58,0.00,,SCT080,0.00,VWS V12.07,2013-07-06 20:11:00,
2013-07-06 15:13:00,83.0,66.2,29.78,SSW,195,2.0,4.0,57,0.00,,SCT080,0.00,VWS V12.07,2013-07-06 20:13:00,
2013-07-06 15:15:00,83.0,66.2,29.78,SSW,195,3.0,3.0,57,0.00,,SCT080,0.00,VWS V12.07,2013-07-06 20:15:00,
2013-07-06 15:18:00,83.0,67.2,29.78,South,189,3.0,3.0,59,0.00,,SCT080,0.00,VWS V12.07,2013-07-06 20:18:00,
2013-07-06 15:19:00,83.2,65.4,29.78,South,191,2.0,3.0,55,0.00,,SCT080,0.00,VWS V12.07,2013-07-06 20:19:00,
2013-07-06 15:22:00,83.2,66.4,29.78,SSW,193,2.0,4.0,57,0.00,,SCT080,0.00,VWS V12.07,2013-07-06 20:22:00,
2013-07-06 15:25:00,83.4,66.6,29.78,SSW,213,2.0,5.0,57,0.00,,SCT080,0.00,VWS V12.07,2013-07-06 20:25:00,
2013-07-06 15:27:00,83.2,66.4,29.78,West,278,0.0,2.0,57,0.00,,SCT080,0.00,VWS V12.07,2013-07-06 20:27:00,
2013-07-06 15:30:00,83.2,66.9,29.78,SW,221,2.0,4.0,58,0.00,,SCT080,0.00,VWS V12.07,2013-07-06 20:30:00,
2013-07-06 15:34:00,82.8,67.0,29.78,SW,221,3.0,4.0,59,0.00,,SCT080,0.00,VWS V12.07,2013-07-06 20:34:00,
2013-07-06 15:39:00,82.8,67.0,29.78,SW,221,1.0,4.0,59,0.00,,SCT090,0.00,VWS V12.07,2013-07-06 20:39:00,
2013-07-06 15:40:00,82.8,66.5,29.78,SW,221,1.0,4.0,58,0.00,,SCT090,0.00,VWS V12.07,2013-07-06 20:40:00,
2013-07-06 15:46:00,82.8,67.0,29.77,South,176,1.0,3.0,59,0.00,,SCT090,0.00,VWS V12.07,2013-07-06 20:46:00,
2013-07-06 15:47:00,82.8,66.0,29.77,SSW,198,1.0,3.0,57,0.00,,SCT090,0.00,VWS V12.07,2013-07-06 20:47:00,
2013-07-06 15:51:00,82.4,65.7,29.77,South,176,2.0,4.0,57,0.00,,SCT090,0.00,VWS V12.07,2013-07-06 20:51:00,
2013-07-06 15:52:00,82.4,66.7,29.77,South,176,2.0,4.0,59,0.00,,SCT090,0.00,VWS V12.07,2013-07-06 20:52:00,
2013-07-06 15:54:00,82.6,66.3,29.77,South,181,1.0,3.0,58,0.00,,SCT090,0.00,VWS V12.07,2013-07-06 20:54:00,
2013-07-06 15:57:00,82.4,66.2,29.77,South,184,2.0,4.0,58,0.00,,BKN080,0.00,VWS V12.07,2013-07-06 20:57:00,
2013-07-06 15:59:00,82.4,66.2,29.78,South,184,1.0,4.0,58,0.00,,BKN080,0.00,VWS V12.07,2013-07-06 20:59:00,
2013-07-06 16:00:00,82.2,66.0,29.78,South,184,1.0,4.0,58,0.00,,BKN080,0.00,VWS V12.07,2013-07-06 21:00:00,
2013-07-06 16:02:00,82.0,66.3,29.78,South,184,0.0,4.0,59,0.00,,BKN080,0.00,VWS V12.07,2013-07-06 21:02:00,
2013-07-06 16:04:00,82.0,67.2,29.78,South,189,1.0,5.0,61,0.00,,BKN080,0.00,VWS V12.07,2013-07-06 21:04:00,
2013-07-06 16:05:00,82.0,66.8,29.78,South,189,2.0,3.0,60,0.00,,BKN080,0.00,VWS V12.07,2013-07-06 21:05:00,
2013-07-06 16:08:00,82.2,66.0,29.78,SSW,200,3.0,4.0,58,0.00,,SCT090,0.00,VWS V12.07,2013-07-06 21:08:00,
2013-07-06 16:09:00,82.2,64.4,29.78,SW,230,4.0,5.0,55,0.00,,SCT090,0.00,VWS V12.07,2013-07-06 21:09:00,
2013-07-06 16:11:00,82.4,64.1,29.78,SW,230,2.0,5.0,54,0.00,,SCT090,0.00,VWS V12.07,2013-07-06 21:11:00,
2013-07-06 16:13:00,82.6,66.3,29.78,SW,230,1.0,5.0,58,0.00,,SCT090,0.00,VWS V12.07,2013-07-06 21:13:00,
2013-07-06 16:14:00,82.6,65.8,29.78,SW,230,0.0,5.0,57,0.00,,SCT090,0.00,VWS V12.07,2013-07-06 21:14:00,
2013-07-06 16:16:00,82.6,66.3,29.78,SW,230,2.0,3.0,58,0.00,,SCT090,0.00,VWS V12.07,2013-07-06 21:16:00,
2013-07-06 16:19:00,82.4,65.7,29.78,SW,230,3.0,4.0,57,0.00,,SCT090,0.00,VWS V12.07,2013-07-06 21:19:00,
2013-07-06 16:21:00,82.0,65.8,29.78,SW,230,3.0,4.0,58,0.00,,SCT090,0.00,VWS V12.07,2013-07-06 21:21:00,
2013-07-06 16:24:00,81.4,66.2,29.78,SW,230,0.0,4.0,60,0.00,,SCT090,0.00,VWS V12.07,2013-07-06 21:24:00,
2013-07-06 16:25:00,81.4,66.2,29.78,SW,230,3.0,4.0,60,0.00,,SCT090,0.00,VWS V12.07,2013-07-06 21:25:00,
2013-07-06 16:26:00,81.2,65.5,29.78,SW,230,1.0,4.0,59,0.00,,SCT090,0.00,VWS V12.07,2013-07-06 21:26:00,
2013-07-06 16:30:00,81.1,67.3,29.78,SW,230,0.0,4.0,63,0.00,,SCT090,0.00,VWS V12.07,2013-07-06 21:30:00,
2013-07-06 16:31:00,81.1,67.3,29.78,SW,230,0.0,4.0,63,0.00,,SCT090,0.00,VWS V12.07,2013-07-06 21:31:00,
2013-07-06 16:32:00,81.1,67.8,29.78,SW,230,1.0,4.0,64,0.00,,SCT090,0.00,VWS V12.07,2013-07-06 21:32:00,
2013-07-06 16:36:00,80.9,66.2,29.78,SW,234,0.0,3.0,61,0.00,,SCT090,0.00,VWS V12.07,2013-07-06 21:36:00,
2013-07-06 16:37:00,80.9,66.2,29.78,SW,234,0.0,4.0,61,0.00,,SCT090,0.00,VWS V12.07,2013-07-06 21:37:00,
2013-07-06 16:42:00,81.2,66.5,29.78,SW,234,2.0,4.0,61,0.00,,SCT090,0.00,VWS V12.07,2013-07-06 21:42:00,
2013-07-06 16:47:00,81.4,66.2,29.78,SW,233,2.0,4.0,60,0.00,,SCT090,0.00,VWS V12.07,2013-07-06 21:47:00,
2013-07-06 16:48:00,81.4,66.2,29.78,SW,233,3.0,4.0,60,0.00,,SCT090,0.00,VWS V12.07,2013-07-06 21:48:00,
2013-07-06 16:51:00,81.6,66.4,29.78,SW,233,3.0,4.0,60,0.00,,SCT075,0.00,VWS V12.07,2013-07-06 21:51:00,
2013-07-06 16:53:00,81.4,66.2,29.78,SW,233,2.0,4.0,60,0.00,,SCT075,0.00,VWS V12.07,2013-07-06 21:53:00,
2013-07-06 16:54:00,81.4,66.7,29.78,SW,233,1.0,4.0,61,0.00,,SCT075,0.00,VWS V12.07,2013-07-06 21:54:00,
2013-07-06 16:57:00,81.4,66.7,29.78,SW,233,0.0,4.0,61,0.00,,BKN090,0.00,VWS V12.07,2013-07-06 21:57:00,
2013-07-06 16:58:00,81.4,66.7,29.78,SW,233,3.0,4.0,61,0.00,,SCT075,0.00,VWS V12.07,2013-07-06 21:58:00,
2013-07-06 16:59:00,81.4,66.7,29.78,SW,233,3.0,4.0,61,0.00,,SCT075,0.00,VWS V12.07,2013-07-06 21:59:00,
2013-07-06 17:03:00,81.4,66.2,29.78,SSW,200,2.0,4.0,60,0.00,,SCT075,0.00,VWS V12.07,2013-07-06 22:03:00,
2013-07-06 17:04:00,81.4,65.7,29.78,SSW,200,2.0,4.0,59,0.00,,SCT075,0.00,VWS V12.07,2013-07-06 22:04:00,
2013-07-06 17:09:00,81.6,66.9,29.78,SSE,159,1.0,3.0,61,0.00,,SCT075,0.00,VWS V12.07,2013-07-06 22:09:00,
2013-07-06 17:14:00,81.4,66.7,29.77,South,171,1.0,3.0,61,0.00,,SCT075,0.00,VWS V12.07,2013-07-06 22:14:00,
2013-07-06 17:15:00,81.4,66.7,29.77,South,171,1.0,3.0,61,0.00,,SCT075,0.00,VWS V12.07,2013-07-06 22:15:00,
2013-07-06 17:20:00,81.2,66.9,29.77,South,188,2.0,4.0,62,0.00,,SCT075,0.00,VWS V12.07,2013-07-06 22:20:00,
2013-07-06 17:21:00,81.2,66.5,29.77,South,188,3.0,4.0,61,0.00,,SCT075,0.00,VWS V12.07,2013-07-06 22:21:00,
2013-07-06 17:22:00,81.2,66.0,29.77,South,189,2.0,4.0,60,0.00,,SCT075,0.00,VWS V12.07,2013-07-06 22:22:00,
2013-07-06 17:25:00,81.2,66.5,29.77,South,189,1.0,3.0,61,0.00,,SCT075,0.00,VWS V12.07,2013-07-06 22:25:00,
2013-07-06 17:28:00,81.2,66.5,29.77,South,189,2.0,4.0,61,0.00,,SCT075,0.00,VWS V12.07,2013-07-06 22:28:00,
2013-07-06 17:29:00,81.2,66.0,29.77,South,189,2.0,4.0,60,0.00,,SCT075,0.00,VWS V12.07,2013-07-06 22:29:00,
2013-07-06 17:31:00,81.2,65.0,29.77,South,191,3.0,4.0,58,0.00,,SCT075,0.00,VWS V12.07,2013-07-06 22:31:00,
2013-07-06 17:35:00,81.2,66.5,29.77,South,191,2.0,0.0,61,0.00,,CLR,0.00,VWS V12.07,2013-07-06 22:35:00,
2013-07-06 17:39:00,81.1,66.4,29.77,South,191,1.0,4.0,61,0.00,,CLR,0.00,VWS V12.07,2013-07-06 22:39:00,
2013-07-06 17:40:00,81.1,65.9,29.77,South,191,2.0,4.0,60,0.00,,CLR,0.00,VWS V12.07,2013-07-06 22:40:00,
2013-07-06 17:44:00,81.1,66.9,29.77,South,191,2.0,4.0,62,0.00,,CLR,0.00,VWS V12.07,2013-07-06 22:44:00,
2013-07-06 17:45:00,80.9,66.2,29.77,South,191,0.0,2.0,61,0.00,,CLR,0.00,VWS V12.07,2013-07-06 22:45:00,
2013-07-06 17:46:00,80.9,66.2,29.77,South,191,2.0,2.0,61,0.00,,CLR,0.00,VWS V12.07,2013-07-06 22:46:00,
2013-07-06 17:50:00,80.7,66.0,29.77,South,191,2.0,3.0,61,0.00,,CLR,0.00,VWS V12.07,2013-07-06 22:50:00,
2013-07-06 17:52:00,80.7,66.5,29.77,South,191,1.0,3.0,62,0.00,,CLR,0.00,VWS V12.07,2013-07-06 22:52:00,
2013-07-06 17:55:00,80.5,66.8,29.77,South,191,0.0,1.0,63,0.00,,CLR,0.00,VWS V12.07,2013-07-06 22:55:00,
2013-07-06 17:59:00,80.5,66.3,29.76,South,191,1.0,3.0,62,0.00,,CLR,0.00,VWS V12.07,2013-07-06 22:59:00,
2013-07-06 18:00:00,80.5,66.3,29.76,South,191,1.0,3.0,62,0.00,,CLR,0.00,VWS V12.07,2013-07-06 23:00:00,
2013-07-06 18:05:00,80.3,66.6,29.76,South,191,1.0,3.0,63,0.00,,CLR,0.00,VWS V12.07,2013-07-06 23:05:00,
2013-07-06 18:07:00,80.3,66.6,29.76,South,191,2.0,4.0,63,0.00,,CLR,0.00,VWS V12.07,2013-07-06 23:07:00,
2013-07-06 18:10:00,80.3,67.0,29.76,South,191,1.0,4.0,64,0.00,,CLR,0.00,VWS V12.07,2013-07-06 23:10:00,
2013-07-06 18:11:00,80.3,67.0,29.76,South,191,1.0,4.0,64,0.00,,CLR,0.00,VWS V12.07,2013-07-06 23:11:00,
2013-07-06 18:12:00,80.3,67.0,29.76,South,191,2.0,4.0,64,0.00,,CLR,0.00,VWS V12.07,2013-07-06 23:12:00,
2013-07-06 18:16:00,80.3,67.0,29.76,South,191,0.0,3.0,64,0.00,,CLR,0.00,VWS V12.07,2013-07-06 23:16:00,
2013-07-06 18:17:00,80.3,67.0,29.76,South,191,1.0,3.0,64,0.00,,CLR,0.00,VWS V12.07,2013-07-06 23:17:00,
2013-07-06 18:18:00,80.5,66.8,29.76,South,191,1.0,3.0,63,0.00,,CLR,0.00,VWS V12.07,2013-07-06 23:18:00,
2013-07-06 18:22:00,80.3,67.0,29.76,South,191,2.0,3.0,64,0.00,,CLR,0.00,VWS V12.07,2013-07-06 23:22:00,
2013-07-06 18:23:00,80.1,67.3,29.76,South,191,2.0,3.0,65,0.00,,CLR,0.00,VWS V12.07,2013-07-06 23:23:00,
2013-07-06 18:24:00,80.1,66.8,29.76,South,191,1.0,3.0,64,0.00,,CLR,0.00,VWS V12.07,2013-07-06 23:24:00,
2013-07-06 18:27:00,79.9,66.7,29.76,South,191,2.0,3.0,64,0.00,,CLR,0.00,VWS V12.07,2013-07-06 23:27:00,
2013-07-06 18:29:00,79.8,67.0,29.76,SSW,193,2.0,4.0,65,0.00,,CLR,0.00,VWS V12.07,2013-07-06 23:29:00,
2013-07-06 18:33:00,79.8,66.1,29.76,SSW,194,2.0,4.0,63,0.00,,CLR,0.00,VWS V12.07,2013-07-06 23:33:00,
2013-07-06 18:34:00,79.8,66.6,29.76,SSW,194,1.0,4.0,64,0.00,,CLR,0.00,VWS V12.07,2013-07-06 23:34:00,
2013-07-06 18:35:00,79.8,66.1,29.76,SSW,194,2.0,4.0,63,0.00,,CLR,0.00,VWS V12.07,2013-07-06 23:35:00,
2013-07-06 18:39:00,79.9,65.3,29.76,SSW,194,1.0,4.0,61,0.00,,CLR,0.00,VWS V12.07,2013-07-06 23:39:00,
2013-07-06 18:40:00,79.9,65.7,29.76,SSW,194,1.0,4.0,62,0.00,,CLR,0.00,VWS V12.07,2013-07-06 23:40:00,
2013-07-06 18:42:00,79.9,66.2,29.76,SSW,194,0.0,4.0,63,0.00,,CLR,0.00,VWS V12.07,2013-07-06 23:42:00,
2013-07-06 18:45:00,79.9,66.7,29.76,SSW,194,0.0,3.0,64,0.00,,CLR,0.00,VWS V12.07,2013-07-06 23:45:00,
2013-07-06 18:47:00,79.8,66.6,29.76,SSW,194,0.0,3.0,64,0.00,,CLR,0.00,VWS V12.07,2013-07-06 23:47:00,
2013-07-06 18:50:00,79.8,67.4,29.76,SSW,194,0.0,3.0,66,0.00,,CLR,0.00,VWS V12.07,2013-07-06 23:50:00,
2013-07-06 18:51:00,79.8,67.0,29.76,SSW,194,1.0,3.0,65,0.00,,CLR,0.00,VWS V12.07,2013-07-06 23:51:00,
2013-07-06 18:52:00,79.8,66.6,29.76,SSW,194,0.0,3.0,64,0.00,,CLR,0.00,VWS V12.07,2013-07-06 23:52:00,
2013-07-06 18:56:00,79.6,66.4,29.76,SSW,194,1.0,2.0,64,0.00,,CLR,0.00,VWS V12.07,2013-07-06 23:56:00,
2013-07-06 18:58:00,79.6,66.4,29.76,SSE,151,0.0,2.0,64,0.00,,CLR,0.00,VWS V12.07,2013-07-06 23:58:00,
2013-07-06 18:59:00,79.6,66.4,29.76,SSE,152,2.0,2.0,64,0.00,,CLR,0.00,VWS V12.07,2013-07-06 23:59:00,
2013-07-06 19:02:00,79.6,65.4,29.76,SSE,152,2.0,3.0,62,0.00,,CLR,0.00,VWS V12.07,2013-07-07 00:02:00,
2013-07-06 19:03:00,79.6,65.9,29.76,SSE,152,0.0,3.0,63,0.00,,CLR,0.00,VWS V12.07,2013-07-07 00:03:00,
2013-07-06 19:04:00,79.6,65.9,29.76,SSE,152,0.0,3.0,63,0.00,,CLR,0.00,VWS V12.07,2013-07-07 00:04:00,
2013-07-06 19:08:00,79.6,65.9,29.76,SSE,152,0.0,3.0,63,0.00,,CLR,0.00,VWS V12.07,2013-07-07 00:08:00,
2013-07-06 19:10:00,79.4,65.7,29.76,SSE,152,1.0,3.0,63,0.00,,CLR,0.00,VWS V12.07,2013-07-07 00:10:00,
2013-07-06 19:13:00,79.4,66.2,29.76,SSE,152,1.0,3.0,64,0.00,,CLR,0.00,VWS V12.07,2013-07-07 00:13:00,
2013-07-06 19:18:00,79.2,66.0,29.76,SSE,152,0.0,2.0,64,0.00,,CLR,0.00,VWS V12.07,2013-07-07 00:18:00,
2013-07-06 19:19:00,79.2,66.0,29.76,SSE,152,0.0,2.0,64,0.00,,CLR,0.00,VWS V12.07,2013-07-07 00:19:00,
2013-07-06 19:23:00,79.2,66.0,29.76,SSE,152,2.0,2.0,64,0.00,,CLR,0.00,VWS V12.07,2013-07-07 00:23:00,
2013-07-06 19:24:00,79.2,66.4,29.76,SSE,152,1.0,2.0,65,0.00,,CLR,0.00,VWS V12.07,2013-07-07 00:24:00,
2013-07-06 19:28:00,79.0,66.2,29.77,SSE,152,0.0,2.0,65,0.00,,CLR,0.00,VWS V12.07,2013-07-07 00:28:00,
2013-07-06 19:30:00,79.0,66.7,29.77,SSE,152,0.0,2.0,66,0.00,,CLR,0.00,VWS V12.07,2013-07-07 00:30:00,
2013-07-06 19:35:00,78.8,66.1,29.77,SSE,152,0.0,2.0,65,0.00,,CLR,0.00,VWS V12.07,2013-07-07 00:35:00,
2013-07-06 19:36:00,78.6,65.4,29.77,SSE,152,0.0,1.0,64,0.00,,CLR,0.00,VWS V12.07,2013-07-07 00:36:00,
2013-07-06 19:40:00,78.6,65.4,29.77,SSE,153,0.0,3.0,64,0.00,,CLR,0.00,VWS V12.07,2013-07-07 00:40:00,
2013-07-06 19:42:00,78.6,66.3,29.77,SSE,153,0.0,3.0,66,0.00,,CLR,0.00,VWS V12.07,2013-07-07 00:42:00,
2013-07-06 19:43:00,78.6,65.9,29.77,SSE,153,1.0,3.0,65,0.00,,CLR,0.00,VWS V12.07,2013-07-07 00:43:00,
2013-07-06 19:46:00,78.5,66.2,29.77,SSE,153,1.0,3.0,66,0.00,,CLR,0.00,VWS V12.07,2013-07-07 00:46:00,
2013-07-06 19:48:00,78.5,66.2,29.77,SSE,153,1.0,3.0,66,0.00,,CLR,0.00,VWS V12.07,2013-07-07 00:48:00,
2013-07-06 19:50:00,78.5,65.8,29.77,SSE,153,0.0,3.0,65,0.00,,CLR,0.00,VWS V12.07,2013-07-07 00:50:00,
2013-07-06 19:53:00,78.5,67.1,29.77,SSE,153,1.0,3.0,68,0.00,,CLR,0.00,VWS V12.07,2013-07-07 00:53:00,
2013-07-06 19:54:00,78.5,66.6,29.77,SSE,153,0.0,3.0,67,0.00,,CLR,0.00,VWS V12.07,2013-07-07 00:54:00,
2013-07-06 19:56:00,78.3,66.4,29.77,SSE,153,0.0,3.0,67,0.00,,CLR,0.00,VWS V12.07,2013-07-07 00:56:00,
2013-07-06 19:59:00,78.1,66.3,29.76,SSE,153,2.0,3.0,67,0.00,,CLR,0.00,VWS V12.07,2013-07-07 00:59:00,
2013-07-06 20:00:00,78.1,66.3,29.76,SSE,153,2.0,3.0,67,0.00,,CLR,0.00,VWS V12.07,2013-07-07 01:00:00,
2013-07-06 20:01:00,78.1,65.8,29.76,SSE,153,2.0,3.0,66,0.00,,CLR,0.00,VWS V12.07,2013-07-07 01:01:00,
2013-07-06 20:04:00,78.1,66.3,29.76,SSE,153,2.0,3.0,67,0.00,,CLR,0.00,VWS V12.07,2013-07-07 01:04:00,
2013-07-06 20:05:00,78.1,66.3,29.76,SSE,153,1.0,3.0,67,0.00,,CLR,0.00,VWS V12.07,2013-07-07 01:05:00,
2013-07-06 20:07:00,77.9,66.1,29.76,SSE,153,2.0,3.0,67,0.00,,CLR,0.00,VWS V12.07,2013-07-07 01:07:00,
2013-07-06 20:10:00,77.9,66.1,29.76,SSE,153,2.0,3.0,67,0.00,,CLR,0.00,VWS V12.07,2013-07-07 01:10:00,
2013-07-06 20:11:00,77.9,66.1,29.76,SSE,153,1.0,3.0,67,0.00,,CLR,0.00,VWS V12.07,2013-07-07 01:11:00,
2013-07-06 20:14:00,77.7,65.9,29.76,SSE,153,1.0,3.0,67,0.00,,CLR,0.00,VWS V12.07,2013-07-07 01:14:00,
2013-07-06 20:16:00,77.7,65.9,29.76,SSW,212,3.0,3.0,67,0.00,,CLR,0.00,VWS V12.07,2013-07-07 01:16:00,
2013-07-06 20:18:00,77.7,65.9,29.76,SSW,212,2.0,3.0,67,0.00,,CLR,0.00,VWS V12.07,2013-07-07 01:18:00,
2013-07-06 20:20:00,77.7,65.4,29.76,SSW,212,1.0,3.0,66,0.00,,CLR,0.00,VWS V12.07,2013-07-07 01:20:00,
2013-07-06 20:23:00,77.7,65.9,29.76,SSW,212,2.0,3.0,67,0.00,,CLR,0.00,VWS V12.07,2013-07-07 01:23:00,
2013-07-06 20:24:00,77.7,65.4,29.76,SSW,212,2.0,3.0,66,0.00,,CLR,0.00,VWS V12.07,2013-07-07 01:24:00,
2013-07-06 20:25:00,77.7,65.4,29.76,SSW,212,3.0,3.0,66,0.00,,CLR,0.00,VWS V12.07,2013-07-07 01:25:00,
2013-07-06 20:28:00,77.6,65.8,29.77,SSW,212,2.0,3.0,67,0.00,,CLR,0.00,VWS V12.07,2013-07-07 01:28:00,
2013-07-06 20:30:00,77.6,65.3,29.77,SSW,212,2.0,3.0,66,0.00,,CLR,0.00,VWS V12.07,2013-07-07 01:30:00,
2013-07-06 20:35:00,77.4,65.6,29.77,SSW,212,2.0,3.0,67,0.00,,CLR,0.00,VWS V12.07,2013-07-07 01:35:00,
2013-07-06 20:40:00,77.4,66.0,29.77,SSW,212,1.0,3.0,68,0.00,,CLR,0.00,VWS V12.07,2013-07-07 01:40:00,
2013-07-06 20:42:00,77.4,65.6,29.77,SSW,212,1.0,3.0,67,0.00,,CLR,0.00,VWS V12.07,2013-07-07 01:42:00,
2013-07-06 20:45:00,77.2,65.4,29.77,SW,228,2.0,3.0,67,0.00,,CLR,0.00,VWS V12.07,2013-07-07 01:45:00,
2013-07-06 20:46:00,77.2,65.8,29.77,SW,228,0.0,3.0,68,0.00,,CLR,0.00,VWS V12.07,2013-07-07 01:46:00,
2013-07-06 20:48:00,77.2,65.4,29.77,SW,228,1.0,3.0,67,0.00,,CLR,0.00,VWS V12.07,2013-07-07 01:48:00,
2013-07-06 20:50:00,77.2,65.8,29.77,SW,228,2.0,3.0,68,0.00,,CLR,0.00,VWS V12.07,2013-07-07 01:50:00,
2013-07-06 20:51:00,77.2,65.8,29.77,SW,228,2.0,3.0,68,0.00,,CLR,0.00,VWS V12.07,2013-07-07 01:51:00,
2013-07-06 20:53:00,77.2,65.8,29.77,SW,228,1.0,3.0,68,0.00,,CLR,0.00,VWS V12.07,2013-07-07 01:53:00,
2013-07-06 20:56:00,77.0,66.1,29.77,SW,228,1.0,2.0,69,0.00,,CLR,0.00,VWS V12.07,2013-07-07 01:56:00,
2013-07-06 20:57:00,77.0,65.6,29.77,SW,228,0.0,2.0,68,0.00,,CLR,0.00,VWS V12.07,2013-07-07 01:57:00,
2013-07-06 20:58:00,77.0,65.6,29.77,SW,228,1.0,2.0,68,0.00,,CLR,0.00,VWS V12.07,2013-07-07 01:58:00,
2013-07-06 21:02:00,77.0,66.1,29.77,SW,228,0.0,2.0,69,0.00,,CLR,0.00,VWS V12.07,2013-07-07 02:02:00,
2013-07-06 21:03:00,77.0,66.5,29.77,SW,228,0.0,2.0,70,0.00,,CLR,0.00,VWS V12.07,2013-07-07 02:03:00,
2013-07-06 21:04:00,77.0,66.5,29.77,SW,228,0.0,2.0,70,0.00,,CLR,0.00,VWS V12.07,2013-07-07 02:04:00,
2013-07-06 21:08:00,76.8,65.4,29.77,SW,228,0.0,0.0,68,0.00,,CLR,0.00,VWS V12.07,2013-07-07 02:08:00,
2013-07-06 21:11:00,76.8,66.3,29.77,SW,228,0.0,0.0,70,0.00,,CLR,0.00,VWS V12.07,2013-07-07 02:11:00,
2013-07-06 21:13:00,76.8,65.9,29.78,SW,228,0.0,1.0,69,0.00,,CLR,0.00,VWS V12.07,2013-07-07 02:13:00,
2013-07-06 21:14:00,76.8,65.9,29.78,SW,228,0.0,1.0,69,0.00,,CLR,0.00,VWS V12.07,2013-07-07 02:14:00,
2013-07-06 21:18:00,76.7,66.2,29.78,SW,228,0.0,1.0,70,0.00,,CLR,0.00,VWS V12.07,2013-07-07 02:18:00,
2013-07-06 21:19:00,76.7,66.2,29.78,SW,228,0.0,1.0,70,0.00,,CLR,0.00,VWS V12.07,2013-07-07 02:19:00,
2013-07-06 21:23:00,76.7,66.2,29.78,SW,228,1.0,3.0,70,0.00,,CLR,0.00,VWS V12.07,2013-07-07 02:23:00,
2013-07-06 21:24:00,76.7,66.2,29.78,SW,228,1.0,3.0,70,0.00,,CLR,0.00,VWS V12.07,2013-07-07 02:24:00,
2013-07-06 21:25:00,76.5,66.0,29.78,SW,228,0.0,1.0,70,0.00,,CLR,0.00,VWS V12.07,2013-07-07 02:25:00,
2013-07-06 21:28:00,76.5,66.0,29.78,SW,228,0.0,1.0,70,0.00,,CLR,0.00,VWS V12.07,2013-07-07 02:28:00,
2013-07-06 21:29:00,76.5,66.0,29.78,SW,228,0.0,1.0,70,0.00,,CLR,0.00,VWS V12.07,2013-07-07 02:29:00,
2013-07-06 21:30:00,76.5,66.0,29.78,SW,228,0.0,1.0,70,0.00,,CLR,0.00,VWS V12.07,2013-07-07 02:30:00,
2013-07-06 21:34:00,76.3,65.8,29.78,SW,228,0.0,2.0,70,0.00,,CLR,0.00,VWS V12.07,2013-07-07 02:34:00,
2013-07-06 21:36:00,76.3,66.2,29.78,SW,228,0.0,1.0,71,0.00,,CLR,0.00,VWS V12.07,2013-07-07 02:36:00,
2013-07-06 21:39:00,76.1,66.0,29.78,SW,228,0.0,1.0,71,0.00,,CLR,0.00,VWS V12.07,2013-07-07 02:39:00,
2013-07-06 21:41:00,76.1,65.6,29.78,SW,228,0.0,1.0,70,0.00,,CLR,0.00,VWS V12.07,2013-07-07 02:41:00,
2013-07-06 21:42:00,76.0,65.5,29.78,SW,228,0.0,1.0,70,0.00,,CLR,0.00,VWS V12.07,2013-07-07 02:42:00,
2013-07-06 21:44:00,76.0,65.9,29.79,SW,228,0.0,0.0,71,0.00,,CLR,0.00,VWS V12.07,2013-07-07 02:44:00,
2013-07-06 21:47:00,76.0,65.9,29.79,SW,228,0.0,1.0,71,0.00,,CLR,0.00,VWS V12.07,2013-07-07 02:47:00,
2013-07-06 21:48:00,76.0,65.9,29.79,SW,228,0.0,1.0,71,0.00,,CLR,0.00,VWS V12.07,2013-07-07 02:48:00,
2013-07-06 21:50:00,76.0,65.5,29.79,SW,228,2.0,2.0,70,0.00,,CLR,0.00,VWS V12.07,2013-07-07 02:50:00,
2013-07-06 21:52:00,76.0,65.9,29.79,SW,228,2.0,3.0,71,0.00,,CLR,0.00,VWS V12.07,2013-07-07 02:52:00,
2013-07-06 21:53:00,76.0,65.9,29.79,SW,228,2.0,3.0,71,0.00,,CLR,0.00,VWS V12.07,2013-07-07 02:53:00,
2013-07-06 21:55:00,76.0,65.9,29.79,SW,228,2.0,3.0,71,0.00,,CLR,0.00,VWS V12.07,2013-07-07 02:55:00,
2013-07-06 21:58:00,75.8,66.1,29.79,SW,228,2.0,3.0,72,0.00,,CLR,0.00,VWS V12.07,2013-07-07 02:58:00,
2013-07-06 21:59:00,76.0,66.3,29.79,SW,228,2.0,3.0,72,0.00,,CLR,0.00,VWS V12.07,2013-07-07 02:59:00,
2013-07-06 22:00:00,75.8,66.5,29.79,SW,228,2.0,3.0,73,0.00,,CLR,0.00,VWS V12.07,2013-07-07 03:00:00,
2013-07-06 22:04:00,75.8,66.1,29.79,SW,228,1.0,3.0,72,0.00,,CLR,0.00,VWS V12.07,2013-07-07 03:04:00,
2013-07-06 22:05:00,75.8,65.7,29.79,SW,228,2.0,3.0,71,0.00,,CLR,0.00,VWS V12.07,2013-07-07 03:05:00,
2013-07-06 22:12:00,75.8,66.1,29.79,SSW,199,1.0,3.0,72,0.00,,CLR,0.00,VWS V12.07,2013-07-07 03:12:00,
2013-07-06 22:13:00,75.8,66.1,29.79,SSW,199,1.0,3.0,72,0.00,,CLR,0.00,VWS V12.07,2013-07-07 03:13:00,
2013-07-06 22:14:00,75.8,66.5,29.79,SSW,199,2.0,3.0,73,0.00,,CLR,0.00,VWS V12.07,2013-07-07 03:14:00,
2013-07-06 22:17:00,75.8,66.1,29.79,SSW,199,1.0,3.0,72,0.00,,CLR,0.00,VWS V12.07,2013-07-07 03:17:00,
2013-07-06 22:18:00,75.8,66.1,29.79,SSW,199,2.0,3.0,72,0.00,,CLR,0.00,VWS V12.07,2013-07-07 03:18:00,
2013-07-06 22:20:00,75.8,66.1,29.79,SSW,199,1.0,3.0,72,0.00,,CLR,0.00,VWS V12.07,2013-07-07 03:20:00,
2013-07-06 22:22:00,75.8,66.1,29.79,SSW,199,1.0,3.0,72,0.00,,CLR,0.00,VWS V12.07,2013-07-07 03:22:00,
2013-07-06 22:23:00,75.8,66.1,29.79,SSW,199,2.0,3.0,72,0.00,,CLR,0.00,VWS V12.07,2013-07-07 03:23:00,
2013-07-06 22:25:00,75.8,66.1,29.79,SSW,199,2.0,3.0,72,0.00,,CLR,0.00,VWS V12.07,2013-07-07 03:25:00,
2013-07-06 22:28:00,75.8,66.1,29.78,SSW,199,1.0,3.0,72,0.00,,CLR,0.00,VWS V12.07,2013-07-07 03:28:00,
2013-07-06 22:32:00,75.6,65.9,29.78,SSW,199,1.0,3.0,72,0.00,,CLR,0.00,VWS V12.07,2013-07-07 03:32:00,
2013-07-06 22:34:00,75.6,66.3,29.78,SSW,199,3.0,3.0,73,0.00,,CLR,0.00,VWS V12.07,2013-07-07 03:34:00,
2013-07-06 22:35:00,75.6,65.9,29.78,SSW,199,1.0,0.0,72,0.00,,SCT120,0.00,VWS V12.07,2013-07-07 03:35:00,
2013-07-06 22:37:00,75.6,65.5,29.78,SSW,199,1.0,3.0,71,0.00,,SCT120,0.00,VWS V12.07,2013-07-07 03:37:00,
2013-07-06 22:40:00,75.6,65.5,29.78,SSW,199,1.0,3.0,71,0.00,,SCT120,0.00,VWS V12.07,2013-07-07 03:40:00,
2013-07-06 22:43:00,75.6,65.9,29.78,SSW,199,1.0,3.0,72,0.00,,SCT120,0.00,VWS V12.07,2013-07-07 03:43:00,
2013-07-06 22:45:00,75.6,65.9,29.78,WSW,252,1.0,3.0,72,0.00,,SCT120,0.00,VWS V12.07,2013-07-07 03:45:00,
2013-07-06 22:46:00,75.6,65.9,29.78,WSW,252,1.0,3.0,72,0.00,,SCT120,0.00,VWS V12.07,2013-07-07 03:46:00,
2013-07-06 22:48:00,75.6,65.9,29.78,WSW,252,2.0,3.0,72,0.00,,SCT120,0.00,VWS V12.07,2013-07-07 03:48:00,
2013-07-06 22:51:00,75.6,65.9,29.78,South,172,1.0,4.0,72,0.00,,SCT120,0.00,VWS V12.07,2013-07-07 03:51:00,
2013-07-06 22:52:00,75.6,66.3,29.78,South,174,2.0,4.0,73,0.00,,SCT120,0.00,VWS V12.07,2013-07-07 03:52:00,
2013-07-06 22:53:00,75.4,65.8,29.78,South,174,2.0,4.0,72,0.00,,SCT120,0.00,VWS V12.07,2013-07-07 03:53:00,
2013-07-06 22:57:00,75.4,65.3,29.78,South,174,2.0,3.0,71,0.00,,SCT120,0.00,VWS V12.07,2013-07-07 03:57:00,
2013-07-06 22:58:00,75.4,65.8,29.77,South,174,1.0,3.0,72,0.00,,SCT120,0.00,VWS V12.07,2013-07-07 03:58:00,
2013-07-06 22:59:00,75.4,65.8,29.77,South,174,2.0,3.0,72,0.00,,SCT120,0.00,VWS V12.07,2013-07-07 03:59:00,
2013-07-06 23:01:00,75.4,66.2,29.77,South,174,3.0,3.0,73,0.00,,SCT120,0.00,VWS V12.07,2013-07-07 04:01:00,
2013-07-06 23:06:00,75.4,66.2,29.77,South,174,3.0,3.0,73,0.00,,SCT120,0.00,VWS V12.07,2013-07-07 04:06:00,
2013-07-06 23:07:00,75.4,66.2,29.77,South,174,2.0,3.0,73,0.00,,SCT120,0.00,VWS V12.07,2013-07-07 04:07:00,
2013-07-06 23:11:00,75.3,65.7,29.77,South,174,2.0,3.0,72,0.00,,SCT120,0.00,VWS V12.07,2013-07-07 04:11:00,
2013-07-06 23:12:00,75.3,66.1,29.77,South,174,1.0,3.0,73,0.00,,SCT120,0.00,VWS V12.07,2013-07-07 04:12:00,
2013-07-06 23:16:00,75.3,66.1,29.77,South,174,2.0,3.0,73,0.00,,SCT120,0.00,VWS V12.07,2013-07-07 04:16:00,
2013-07-06 23:17:00,75.3,65.7,29.77,South,174,0.0,3.0,72,0.00,,SCT120,0.00,VWS V12.07,2013-07-07 04:17:00,
2013-07-06 23:18:00,75.3,66.1,29.77,South,174,0.0,3.0,73,0.00,,SCT120,0.00,VWS V12.07,2013-07-07 04:18:00,
2013-07-06 23:22:00,75.1,65.9,29.77,South,174,2.0,3.0,73,0.00,,SCT120,0.00,VWS V12.07,2013-07-07 04:22:00,
2013-07-06 23:23:00,75.1,65.9,29.77,South,174,0.0,3.0,73,0.00,,SCT120,0.00,VWS V12.07,2013-07-07 04:23:00,
2013-07-06 23:24:00,75.1,65.9,29.77,South,174,1.0,3.0,73,0.00,,SCT120,0.00,VWS V12.07,2013-07-07 04:24:00,
2013-07-06 23:27:00,74.9,65.7,29.77,South,174,1.0,3.0,73,0.00,,SCT120,0.00,VWS V12.07,2013-07-07 04:27:00,
2013-07-06 23:28:00,74.9,65.7,29.77,South,174,0.0,3.0,73,0.00,,SCT120,0.00,VWS V12.07,2013-07-07 04:28:00,
2013-07-06 23:29:00,74.9,65.3,29.77,South,174,0.0,3.0,72,0.00,,SCT120,0.00,VWS V12.07,2013-07-07 04:29:00,
2013-07-06 23:32:00,74.9,65.7,29.77,South,174,1.0,3.0,73,0.00,,SCT120,0.00,VWS V12.07,2013-07-07 04:32:00,
2013-07-06 23:33:00,74.9,65.7,29.77,South,174,2.0,3.0,73,0.00,,SCT120,0.00,VWS V12.07,2013-07-07 04:33:00,
2013-07-06 23:34:00,74.9,65.7,29.77,South,174,2.0,3.0,73,0.00,,SCT120,0.00,VWS V12.07,2013-07-07 04:34:00,
2013-07-06 23:35:00,74.9,66.1,29.77,South,174,2.0,3.0,74,0.00,,CLR,0.00,VWS V12.07,2013-07-07 04:35:00,
2013-07-06 23:38:00,74.7,65.5,29.77,South,174,2.0,3.0,73,0.00,,CLR,0.00,VWS V12.07,2013-07-07 04:38:00,
2013-07-06 23:40:00,74.7,65.9,29.77,South,174,1.0,3.0,74,0.00,,CLR,0.00,VWS V12.07,2013-07-07 04:40:00,
2013-07-06 23:41:00,74.7,65.9,29.77,South,174,1.0,3.0,74,0.00,,CLR,0.00,VWS V12.07,2013-07-07 04:41:00,
2013-07-06 23:43:00,74.7,66.3,29.76,South,174,0.0,3.0,75,0.00,,CLR,0.00,VWS V12.07,2013-07-07 04:43:00,
2013-07-06 23:44:00,74.7,66.3,29.76,South,174,2.0,3.0,75,0.00,,CLR,0.00,VWS V12.07,2013-07-07 04:44:00,
2013-07-06 23:45:00,74.6,65.8,29.76,South,174,2.0,2.0,74,0.00,,CLR,0.00,VWS V12.07,2013-07-07 04:45:00,
2013-07-06 23:46:00,74.6,66.2,29.76,South,174,0.0,2.0,75,0.00,,CLR,0.00,VWS V12.07,2013-07-07 04:46:00,
2013-07-06 23:48:00,74.6,66.2,29.76,South,174,1.0,2.0,75,0.00,,CLR,0.00,VWS V12.07,2013-07-07 04:48:00,
2013-07-06 23:49:00,74.6,65.8,29.76,South,174,0.0,2.0,74,0.00,,CLR,0.00,VWS V12.07,2013-07-07 04:49:00,
2013-07-06 23:51:00,74.6,66.2,29.76,South,180,0.0,2.0,75,0.00,,CLR,0.00,VWS V12.07,2013-07-07 04:51:00,
2013-07-06 23:53:00,74.6,66.2,29.76,South,180,0.0,2.0,75,0.00,,CLR,0.00,VWS V12.07,2013-07-07 04:53:00,
2013-07-06 23:54:00,74.6,66.2,29.76,South,180,0.0,2.0,75,0.00,,CLR,0.00,VWS V12.07,2013-07-07 04:54:00,
2013-07-06 23:56:00,74.4,65.2,29.76,South,180,1.0,2.0,73,0.00,,CLR,0.00,VWS V12.07,2013-07-07 04:56:00,
2013-07-06 23:58:00,74.4,65.6,29.76,South,180,0.0,2.0,74,0.00,,CLR,0.00,VWS V12.07,2013-07-07 04:58:00,
2013-07-06 23:59:00,74.4,66.0,29.76,South,180,0.0,2.0,75,0.00,,CLR,0.00,VWS V12.07,2013-07-07 04:59:00,